You seem to have your browser language set as English. Would you like the website to be translated for a better experience?

English

Journey to APT Taipei | Over 128 seats GTD (worth more than $200K) | Extra $50K Bonus for N8 Qualifiers | 28 Jan - 25 Feb 2024

注意:本次比賽現已結束

winter giveaway series 2023

2023 年双旦嘉年華

哈哈哈!今年,Natural8 的聖誕老人將以慷慨的精神傳播節日的歡樂!本賽季可享受高達50,000,000 美元的總保證獎池,以及額外 5,000,000 美元的免費比賽和附加獎金。

$1M GTD Freeroll & $4M in Add Ons

100 萬美元保底免費比賽和加碼400 萬美元獎金

為了表達我們在這個節日期間的謝意,我們為所有優秀的玩家準備了特別的贈品!

$1,000,000 Happy New Year Freeroll

$1,000,000 新年快樂免費錦標賽

Natural8 史上規模最大的免費錦標賽!

非常感謝所有讓 2023 年變得特別的人!

參加價值 100 萬美元的免費錦標賽 – 向所有玩家開放。

2023 年 12 月 20 日至 2024 年 1 月 1 日期間每天舉行。

plus
$4,000,000 in Free Add-ons

送出更多的好禮!

您最喜歡的錦標賽現在可額外獲得 10% 的價值!

價值 400 萬美元的免費禮物正等著您。

現在就來看看錦標賽大廳吧!

特別活動

聖誕節神秘賞金

快來打開你的賞金禮物吧!

2023 年 12 月 25 日,18:00 世界標準時間

$125 買入

1,000,000 美元保證

全球百萬新年賞金狂歡

加入全球新年慶祝活動!

世界標準時間 2024 年 1 月 7 日 20:30

$50 買入

1,000,000 美元保證

Omaholic 百萬美元新年賞金狂歡

發現並打開您的 Omaholic 賞金禮物!

世界標準時間 2024 年 1 月 7 日 20:30

54 美元買入

保證 250,000 美元

冬季贈品系列大結局

以盛大的方式啟動 2024 年!

2024 年 1 月 15 日,18:00 世界標準時間

$250 買入費

保證獎金 2,024,000 美元

系列賽時間表

DATE DAY UTC EVENT BUY-IN GTD
Dec 10 Sun 18:30 #4: $400 "Winter is Coming" Opener [Day 1, 6-Max] $400 $1,000,000
Dec 11 Mon 12:30 #4: $400 "Winter is Coming" Opener [Day 1, 6-Max] $400 $1,000,000
Dec 11 Mon 13:30 #11: $125 Christmas Day Mystery Bounty [Stage 1] $125 $1,000,000
Dec 11 Mon 18:30 #4: $400 "Winter is Coming" Opener [Day 1, 6-Max] $400 $1,000,000
Dec 11 Mon 19:30 #11: $125 Christmas Day Mystery Bounty [Stage 1] $125 $1,000,000
Dec 12 Tue 12:30 #4: $400 "Winter is Coming" Opener [Day 1, 6-Max] $400 $1,000,000
Dec 12 Tue 13:30 #11: $125 Christmas Day Mystery Bounty [Stage 1] $125 $1,000,000
Dec 12 Tue 18:30 #4: $400 "Winter is Coming" Opener [Day 1, 6-Max] $400 $1,000,000
Dec 12 Tue 19:30 #11: $125 Christmas Day Mystery Bounty [Stage 1] $125 $1,000,000
Dec 13 Wed 12:30 #4: $400 "Winter is Coming" Opener [Day 1, 6-Max] $400 $1,000,000
Dec 13 Wed 13:30 #11: $125 Christmas Day Mystery Bounty [Stage 1] $125 $1,000,000
Dec 13 Wed 18:30 #4: $400 "Winter is Coming" Opener [Day 1, 6-Max] $400 $1,000,000
Dec 13 Wed 19:30 #11: $125 Christmas Day Mystery Bounty [Stage 1] $125 $1,000,000
Dec 14 Thu 12:30 #4: $400 "Winter is Coming" Opener [Day 1, 6-Max] $400 $1,000,000
Dec 14 Thu 13:30 #11: $125 Christmas Day Mystery Bounty [Stage 1] $125 $1,000,000
Dec 14 Thu 14:00 $30 Daily Merrython $30 $15,000
Dec 14 Thu 15:30 $12.90 Bounty Hunters Holiday Special $12.90 $50,000
Dec 14 Thu 17:00 $250 Daily Main Event [Winter Freezeout] $250 $25,000
Dec 14 Thu 18:00 $150 Rotating Main Event with Special Names $150 $100,000
Dec 14 Thu 18:00 $15 Rotating MIni Main Event with Special Names $15 $50,000
Dec 14 Thu 18:30 #4: $400 "Winter is Coming" Opener [Day 1, 6-Max] $400 $1,000,000
Dec 14 Thu 19:30 $108 Bounty Hunters Brrrrr! [Winter Freezeout] $108 $20,000
Dec 14 Thu 19:30 #11: $125 Christmas Day Mystery Bounty [Stage 1] $125 $1,000,000
Dec 14 Thu 21:00 $215 Holiday Heater $215 $20,000
Dec 14 Thu 22:00 $64.50 Snowy SUPER SIX Bounty Turbo $64.50 $20,000
Dec 14 Thu 23:00 $50 Holiday Saver [Winter Freezeout] $50 $10,000
Dec 15 Fri 00:00 $25 Winter Tick Tock BOOM $25 $10,000
Dec 15 Fri 01:00 $108 Santa's Speed Racer $108 $10,000
Dec 15 Fri 12:30 #4: $400 "Winter is Coming" Opener [Day 1, 6-Max] $400 $1,000,000
Dec 15 Fri 13:30 #11: $125 Christmas Day Mystery Bounty [Stage 1] $125 $1,000,000
Dec 15 Fri 14:00 $30 Daily Merrython $30 $15,000
Dec 15 Fri 15:30 $12.90 Bounty Hunters Holiday Special $12.90 $50,000
Dec 15 Fri 17:00 $250 Daily Main Event [Winter Freezeout] $250 $25,000
Dec 15 Fri 18:00 $150 Rotating Main Event with Special Names $150 $100,000
Dec 15 Fri 18:00 $15 Rotating MIni Main Event with Special Names $15 $50,000
Dec 15 Fri 18:00 #1: $210 Season's Greetings Opener [Mystery Bounty] $210 $500,000
Dec 15 Fri 18:30 #4: $400 "Winter is Coming" Opener [Day 1, 6-Max] $400 $1,000,000
Dec 15 Fri 19:30 $108 Bounty Hunters Brrrrr! [Winter Freezeout] $108 $20,000
Dec 15 Fri 19:30 #11: $125 Christmas Day Mystery Bounty [Stage 1] $125 $1,000,000
Dec 15 Fri 21:00 $215 Holiday Heater $215 $20,000
Dec 15 Fri 22:00 $64.50 Snowy SUPER SIX Bounty Turbo $64.50 $20,000
Dec 15 Fri 23:00 $50 Holiday Saver [Winter Freezeout] $50 $10,000
Dec 16 Sat 00:00 $25 Winter Tick Tock BOOM $25 $10,000
Dec 16 Sat 01:00 $108 Santa's Speed Racer $108 $10,000
Dec 16 Sat 12:30 #4: $400 "Winter is Coming" Opener [Day 1, 6-Max] $400 $1,000,000
Dec 16 Sat 13:30 #11: $125 Christmas Day Mystery Bounty [Stage 1] $125 $1,000,000
Dec 16 Sat 14:00 $30 Daily Merrython $30 $15,000
Dec 16 Sat 15:30 $12.90 Bounty Hunters Holiday Special $12.90 $50,000
Dec 16 Sat 17:00 $250 Daily Main Event [Winter Freezeout] $250 $25,000
Dec 16 Sat 18:00 $150 Rotating Main Event with Special Names $150 $100,000
Dec 16 Sat 18:00 $15 Rotating MIni Main Event with Special Names $15 $50,000
Dec 16 Sat 18:00 #2: $525 Omaholic Snow Bounty $525 $200,000
Dec 16 Sat 18:30 #4: $400 "Winter is Coming" Opener [Day 1, 6-Max] $400 $1,000,000
Dec 16 Sat 19:30 $108 Bounty Hunters Brrrrr! [Winter Freezeout] $108 $20,000
Dec 16 Sat 19:30 #11: $125 Christmas Day Mystery Bounty [Stage 1] $125 $1,000,000
Dec 16 Sat 21:00 $215 Holiday Heater $215 $20,000
Dec 16 Sat 22:00 $64.50 Snowy SUPER SIX Bounty Turbo $64.50 $20,000
Dec 16 Sat 23:00 $50 Holiday Saver [Winter Freezeout] $50 $10,000
Dec 17 Sun 00:00 $25 Winter Tick Tock BOOM $25 $10,000
Dec 17 Sun 00:30 #4: $400 "Winter is Coming" Opener [Day 1, 6-Max] $400 $1,000,000
Dec 17 Sun 01:00 $108 Santa's Speed Racer $108 $10,000
Dec 17 Sun 12:00 $125 Sunday Winter Kick-Off $125 $75,000
Dec 17 Sun 12:30 #4: $400 "Winter is Coming" Opener [Day 1, 6-Max] $400 $1,000,000
Dec 17 Sun 13:00 $25 Sunday MERRY Monster Stack $25 $75,000
Dec 17 Sun 13:30 #11: $125 Christmas Day Mystery Bounty [Stage 1] $125 $1,000,000
Dec 17 Sun 14:00 $300 Sunday Merrython $300 $75,000
Dec 17 Sun 14:30 $85.50 Bounty Blast $85.50 $75,000
Dec 17 Sun 15:00 $125 Grand Winter Prix $125 $150,000
Dec 17 Sun 15:30 $44 Bounty Frozen FORTY STACK $44 $200,000
Dec 17 Sun 16:00 $88 Sunday CRAZY EIGHTS $88 $88,000
Dec 17 Sun 16:30 $54 Bounty Hunters MAIN EVENT $54 $500,000
Dec 17 Sun 17:00 #3: $1,050 GGMasters HR Winter Freezeout $1,050 $1,000,000
Dec 17 Sun 17:30 $215 Bounty Winter BIG GAMES $215 $300,000
Dec 17 Sun 17:40 $54 Omaholic Bounty SNOW Showdown $54 $25,000
Dec 17 Sun 18:00 $36.50 Sunday SNOW GIANT $36.50 $150,000
Dec 17 Sun 18:30 $320 GGMasters Bounty Winter FREEZEOUT $320 $350,000
Dec 17 Sun 18:30 #4: $400 "Winter is Coming" Opener [Day 1, 6-Max] $400 $1,000,000
Dec 17 Sun 19:00 $125 Sunday HUNDRED Stack $125 $150,000
Dec 17 Sun 19:30 $215 Omholic Bounty MAIN EVENT $215 $50,000
Dec 17 Sun 19:30 #11: $125 Christmas Day Mystery Bounty [Stage 1] $125 $1,000,000
Dec 17 Sun 20:00 $77 LUCKY SEVENS Superstack Turbo $77 $100,000
Dec 17 Sun 21:00 $250 Sunday Cooler [Bounty Turbo] $250 $125,000
Dec 17 Sun 22:00 $64.50 Snowy SUPER SIX Bounty Turbo $64.50 $60,000
Dec 17 Sun 23:00 $50 Sunday Saver [Winter Freezeout] $50 $50,000
Dec 18 Mon 00:00 $25 Winter Tick Tock BOOM $25 $100,000
Dec 18 Mon 00:30 #4: $400 "Winter is Coming" Opener [Day 1, 6-Max] $400 $1,000,000
Dec 18 Mon 01:00 $108 Santa's Speed Racer $108 $125,000
Dec 18 Mon 03:30 #4: $400 "Winter is Coming" Opener [Day 1, 6-Max] $400 $1,000,000
Dec 18 Mon 06:30 #4: $400 "Winter is Coming" Opener [Day 1, 6-Max] $400 $1,000,000
Dec 18 Mon 09:30 #4: $400 "Winter is Coming" Opener [Day 1, 6-Max] $400 $1,000,000
Dec 18 Mon 10:30 #11: $125 Christmas Day Mystery Bounty [Stage 1] $125 $1,000,000
Dec 18 Mon 12:30 #4: $400 "Winter is Coming" Opener [Day 1, 6-Max] $400 $1,000,000
Dec 18 Mon 13:30 #11: $125 Christmas Day Mystery Bounty [Stage 1] $125 $1,000,000
Dec 18 Mon 14:00 $30 Daily Merrython $30 $15,000
Dec 18 Mon 15:30 $12.90 Bounty Hunters Holiday Special $12.90 $50,000
Dec 18 Mon 15:30 #4: $400 "Winter is Coming" Opener [Last Chance, 6-Max] $400 $1,000,000
Dec 18 Mon 16:30 #11: $125 Christmas Day Mystery Bounty [Stage 1] $125 $1,000,000
Dec 18 Mon 17:00 $250 Daily Main Event [Winter Freezeout] $250 $25,000
Dec 18 Mon 18:00 $150 Rotating Main Event with Special Names $150 $100,000
Dec 18 Mon 18:00 $15 Rotating MIni Main Event with Special Names $15 $50,000
Dec 18 Mon 18:00 #4: $400 "Winter is Coming" Opener [Final Day, 6-Max] $400 $1,000,000
Dec 18 Mon 18:30 #24: Global MILLION$ New Year Bounty Bash [Stage 1] $50 $1,000,000
Dec 18 Mon 19:30 $108 Bounty Hunters Brrrrr! [Winter Freezeout] $108 $20,000
Dec 18 Mon 19:30 #11: $125 Christmas Day Mystery Bounty [Stage 1] $125 $1,000,000
Dec 18 Mon 21:00 $215 Holiday Heater $215 $20,000
Dec 18 Mon 22:00 $64.50 Snowy SUPER SIX Bounty Turbo $64.50 $20,000
Dec 18 Mon 22:30 #11: $125 Christmas Day Mystery Bounty [Stage 1] $125 $1,000,000
Dec 18 Mon 23:00 $50 Holiday Saver [Winter Freezeout] $50 $10,000
Dec 19 Tue 00:00 $25 Winter Tick Tock BOOM $25 $10,000
Dec 19 Tue 01:00 $108 Santa's Speed Racer $108 $10,000
Dec 19 Tue 10:30 #11: $125 Christmas Day Mystery Bounty [Stage 1] $125 $1,000,000
Dec 19 Tue 13:30 #11: $125 Christmas Day Mystery Bounty [Stage 1] $125 $1,000,000
Dec 19 Tue 14:00 $30 Daily Merrython $30 $15,000
Dec 19 Tue 15:30 $12.90 Bounty Hunters Holiday Special $12.90 $50,000
Dec 19 Tue 16:30 #11: $125 Christmas Day Mystery Bounty [Stage 1] $125 $1,000,000
Dec 19 Tue 17:00 $250 Daily Main Event [Winter Freezeout] $250 $25,000
Dec 19 Tue 18:00 $150 Rotating Main Event with Special Names $150 $100,000
Dec 19 Tue 18:00 $15 Rotating MIni Main Event with Special Names $15 $50,000
Dec 19 Tue 18:00 #5: $50 Stocking Stuffer Superstack $50 $200,000
Dec 19 Tue 18:30 #24: Global MILLION$ New Year Bounty Bash [Stage 1] $50 $1,000,000
Dec 19 Tue 19:30 $108 Bounty Hunters Brrrrr! [Winter Freezeout] $108 $20,000
Dec 19 Tue 19:30 #11: $125 Christmas Day Mystery Bounty [Stage 1] $125 $1,000,000
Dec 19 Tue 21:00 $215 Holiday Heater $215 $20,000
Dec 19 Tue 22:00 $64.50 Snowy SUPER SIX Bounty Turbo $64.50 $20,000
Dec 19 Tue 22:30 #11: $125 Christmas Day Mystery Bounty [Stage 1] $125 $1,000,000
Dec 19 Tue 23:00 $50 Holiday Saver [Winter Freezeout] $50 $10,000
Dec 20 Wed 00:00 $25 Winter Tick Tock BOOM $25 $10,000
Dec 20 Wed 01:00 $108 Santa's Speed Racer $108 $10,000
Dec 20 Wed 10:30 #11: $125 Christmas Day Mystery Bounty [Stage 1] $125 $1,000,000
Dec 20 Wed 13:30 #11: $125 Christmas Day Mystery Bounty [Stage 1] $125 $1,000,000
Dec 20 Wed 14:00 $30 Daily Merrython $30 $15,000
Dec 20 Wed 15:30 $12.90 Bounty Hunters Holiday Special $12.90 $50,000
Dec 20 Wed 16:30 #11: $125 Christmas Day Mystery Bounty [Stage 1] $125 $1,000,000
Dec 20 Wed 17:00 $250 Daily Main Event [Winter Freezeout] $250 $25,000
Dec 20 Wed 18:00 $150 Rotating Main Event with Special Names $150 $100,000
Dec 20 Wed 18:00 $15 Rotating MIni Main Event with Special Names $15 $50,000
Dec 20 Wed 18:00 #6: $200 Santa's Sled Ultra Deepstack Turbo $200 $200,000
Dec 20 Wed 18:30 #24: Global MILLION$ New Year Bounty Bash [Stage 1] $50 $1,000,000
Dec 20 Wed 19:30 $108 Bounty Hunters Brrrrr! [Winter Freezeout] $108 $20,000
Dec 20 Wed 19:30 #11: $125 Christmas Day Mystery Bounty [Stage 1] $125 $1,000,000
Dec 20 Wed 21:00 $215 Holiday Heater $215 $20,000
Dec 20 Wed 22:00 $64.50 Snowy SUPER SIX Bounty Turbo $64.50 $20,000
Dec 20 Wed 22:30 #11: $125 Christmas Day Mystery Bounty [Stage 1] $125 $1,000,000
Dec 20 Wed 23:00 $50 Holiday Saver [Winter Freezeout] $50 $10,000
Dec 21 Thu 00:00 $25 Winter Tick Tock BOOM $25 $10,000
Dec 21 Thu 01:00 $108 Santa's Speed Racer $108 $10,000
Dec 21 Thu 10:30 #11: $125 Christmas Day Mystery Bounty [Stage 1] $125 $1,000,000
Dec 21 Thu 13:30 #11: $125 Christmas Day Mystery Bounty [Stage 1] $125 $1,000,000
Dec 21 Thu 14:00 $30 Daily Merrython $30 $15,000
Dec 21 Thu 15:30 $12.90 Bounty Hunters Holiday Special $12.90 $50,000
Dec 21 Thu 16:30 #11: $125 Christmas Day Mystery Bounty [Stage 1] $125 $1,000,000
Dec 21 Thu 17:00 $250 Daily Main Event [Winter Freezeout] $250 $25,000
Dec 21 Thu 18:00 $150 Rotating Main Event with Special Names $150 $100,000
Dec 21 Thu 18:00 $15 Rotating MIni Main Event with Special Names $15 $50,000
Dec 21 Thu 18:00 #7: $1,050 Naughty or Nice Bounty $1,050 $500,000
Dec 21 Thu 18:30 #24: Global MILLION$ New Year Bounty Bash [Stage 1] $50 $1,000,000
Dec 21 Thu 19:30 $108 Bounty Hunters Brrrrr! [Winter Freezeout] $108 $20,000
Dec 21 Thu 19:30 #11: $125 Christmas Day Mystery Bounty [Stage 1] $125 $1,000,000
Dec 21 Thu 21:00 $215 Holiday Heater $215 $20,000
Dec 21 Thu 22:00 $64.50 Snowy SUPER SIX Bounty Turbo $64.50 $20,000
Dec 21 Thu 22:30 #11: $125 Christmas Day Mystery Bounty [Stage 1] $125 $1,000,000
Dec 21 Thu 23:00 $50 Holiday Saver [Winter Freezeout] $50 $10,000
Dec 22 Fri 00:00 $25 Winter Tick Tock BOOM $25 $10,000
Dec 22 Fri 01:00 $108 Santa's Speed Racer $108 $10,000
Dec 22 Fri 10:30 #11: $125 Christmas Day Mystery Bounty [Stage 1] $125 $1,000,000
Dec 22 Fri 13:30 #11: $125 Christmas Day Mystery Bounty [Stage 1] $125 $1,000,000
Dec 22 Fri 14:00 $30 Daily Merrython $30 $15,000
Dec 22 Fri 15:30 $12.90 Bounty Hunters Holiday Special $12.90 $50,000
Dec 22 Fri 16:30 #11: $125 Christmas Day Mystery Bounty [Stage 1] $125 $1,000,000
Dec 22 Fri 17:00 $250 Daily Main Event [Winter Freezeout] $250 $25,000
Dec 22 Fri 18:00 $150 Rotating Main Event with Special Names $150 $100,000
Dec 22 Fri 18:00 $15 Rotating MIni Main Event with Special Names $15 $50,000
Dec 22 Fri 18:00 #8: $54 Friday Night Snowball Fight [Bounty 6-Max] $54 $150,000
Dec 22 Fri 18:30 #24: Global MILLION$ New Year Bounty Bash [Stage 1] $50 $1,000,000
Dec 22 Fri 19:30 $108 Bounty Hunters Brrrrr! [Winter Freezeout] $108 $20,000
Dec 22 Fri 19:30 #11: $125 Christmas Day Mystery Bounty [Stage 1] $125 $1,000,000
Dec 22 Fri 21:00 $215 Holiday Heater $215 $20,000
Dec 22 Fri 22:00 $64.50 Snowy SUPER SIX Bounty Turbo $64.50 $20,000
Dec 22 Fri 22:30 #11: $125 Christmas Day Mystery Bounty [Stage 1] $125 $1,000,000
Dec 22 Fri 23:00 $50 Holiday Saver [Winter Freezeout] $50 $10,000
Dec 23 Sat 00:00 $25 Winter Tick Tock BOOM $25 $10,000
Dec 23 Sat 01:00 $108 Santa's Speed Racer $108 $10,000
Dec 23 Sat 10:30 #11: $125 Christmas Day Mystery Bounty [Stage 1] $125 $1,000,000
Dec 23 Sat 13:30 #11: $125 Christmas Day Mystery Bounty [Stage 1] $125 $1,000,000
Dec 23 Sat 14:00 $30 Daily Merrython $30 $15,000
Dec 23 Sat 15:30 $12.90 Bounty Hunters Holiday Special $12.90 $50,000
Dec 23 Sat 16:30 #11: $125 Christmas Day Mystery Bounty [Stage 1] $125 $1,000,000
Dec 23 Sat 17:00 $250 Daily Main Event [Winter Freezeout] $250 $25,000
Dec 23 Sat 18:00 $150 Rotating Main Event with Special Names $150 $100,000
Dec 23 Sat 18:00 $15 Rotating MIni Main Event with Special Names $15 $50,000
Dec 23 Sat 18:00 #9: $300 Christmas Carol Triple Chance [3-Stack] $300 $200,000
Dec 23 Sat 18:30 #24: Global MILLION$ New Year Bounty Bash [Stage 1] $50 $1,000,000
Dec 23 Sat 19:30 $108 Bounty Hunters Brrrrr! [Winter Freezeout] $108 $20,000
Dec 23 Sat 19:30 #11: $125 Christmas Day Mystery Bounty [Stage 1] $125 $1,000,000
Dec 23 Sat 21:00 $215 Holiday Heater $215 $20,000
Dec 23 Sat 22:00 $64.50 Snowy SUPER SIX Bounty Turbo $64.50 $20,000
Dec 23 Sat 22:30 #11: $125 Christmas Day Mystery Bounty [Stage 1] $125 $1,000,000
Dec 23 Sat 23:00 $50 Holiday Saver [Winter Freezeout] $50 $10,000
Dec 24 Sun 00:00 $25 Winter Tick Tock BOOM $25 $10,000
Dec 24 Sun 01:00 $108 Santa's Speed Racer $108 $10,000
Dec 24 Sun 10:30 #11: $125 Christmas Day Mystery Bounty [Stage 1] $125 $1,000,000
Dec 24 Sun 12:00 $125 Sunday Winter Kick-Off $125 $75,000
Dec 24 Sun 13:00 $25 Sunday MERRY Monster Stack $25 $75,000
Dec 24 Sun 13:30 #11: $125 Christmas Day Mystery Bounty [Stage 1] $125 $1,000,000
Dec 24 Sun 14:00 $300 Sunday Merrython $300 $75,000
Dec 24 Sun 14:30 $85.50 Bounty Blast $85.50 $75,000
Dec 24 Sun 15:00 $125 Grand Winter Prix $125 $150,000
Dec 24 Sun 15:30 $44 Bounty Frozen FORTY STACK $44 $200,000
Dec 24 Sun 16:00 $88 Sunday CRAZY EIGHTS $88 $88,000
Dec 24 Sun 16:30 $54 Bounty Hunters MAIN EVENT $54 $500,000
Dec 24 Sun 16:30 #11: $125 Christmas Day Mystery Bounty [Stage 1] $125 $1,000,000
Dec 24 Sun 17:30 $215 Bounty Winter BIG GAMES $215 $300,000
Dec 24 Sun 17:40 $54 Omaholic Bounty SNOW Showdown $54 $25,000
Dec 24 Sun 18:00 $36.50 Sunday SNOW GIANT $36.50 $150,000
Dec 24 Sun 18:00 #10: $25 Secret Santa Sunday [Mystery Bounty] $25 $250,000
Dec 24 Sun 18:30 $320 GGMasters Bounty Winter FREEZEOUT $320 $350,000
Dec 24 Sun 18:30 #24: Global MILLION$ New Year Bounty Bash [Stage 1] $50 $1,000,000
Dec 24 Sun 19:00 $125 Sunday HUNDRED Stack $125 $150,000
Dec 24 Sun 19:30 $215 Omholic Bounty MAIN EVENT $215 $50,000
Dec 24 Sun 19:30 #11: $125 Christmas Day Mystery Bounty [Stage 1] $125 $1,000,000
Dec 24 Sun 20:00 $77 LUCKY SEVENS Superstack Turbo $77 $100,000
Dec 24 Sun 21:00 $250 Sunday Cooler [Bounty Turbo] $250 $125,000
Dec 24 Sun 22:00 $64.50 Snowy SUPER SIX Bounty Turbo $64.50 $60,000
Dec 24 Sun 22:30 #11: $125 Christmas Day Mystery Bounty [Stage 1] $125 $1,000,000
Dec 24 Sun 23:00 $50 Sunday Saver [Winter Freezeout] $50 $50,000
Dec 25 Mon 00:00 $25 Winter Tick Tock BOOM $25 $100,000
Dec 25 Mon 01:00 $108 Santa's Speed Racer $108 $125,000
Dec 25 Mon 01:30 #11: $125 Christmas Day Mystery Bounty [Stage 1] $125 $1,000,000
Dec 25 Mon 04:30 #11: $125 Christmas Day Mystery Bounty [Stage 1] $125 $1,000,000
Dec 25 Mon 07:30 #11: $125 Christmas Day Mystery Bounty [Stage 1] $125 $1,000,000
Dec 25 Mon 10:30 #11: $125 Christmas Day Mystery Bounty [Stage 1] $125 $1,000,000
Dec 25 Mon 12:30 #24: Global MILLION$ New Year Bounty Bash [Stage 1] $50 $1,000,000
Dec 25 Mon 13:30 #11: $125 Christmas Day Mystery Bounty [Stage 1] $125 $1,000,000
Dec 25 Mon 14:00 $30 Daily Merrython $30 $15,000
Dec 25 Mon 15:30 $12.90 Bounty Hunters Holiday Special $12.90 $50,000
Dec 25 Mon 15:30 #11: $125 Christmas Day Mystery Bounty [Last Chance] $125 $1,000,000
Dec 25 Mon 17:00 $250 Daily Main Event [Winter Freezeout] $250 $25,000
Dec 25 Mon 18:00 $150 Rotating Main Event with Special Names $150 $100,000
Dec 25 Mon 18:00 $15 Rotating MIni Main Event with Special Names $15 $50,000
Dec 25 Mon 18:00 #11: $125 Christmas Day Mystery Bounty [Final Stage] $125 $1,000,000
Dec 25 Mon 18:30 #24: Global MILLION$ New Year Bounty Bash [Stage 1] $50 $1,000,000
Dec 25 Mon 19:30 $108 Bounty Hunters Brrrrr! [Winter Freezeout] $108 $20,000
Dec 25 Mon 21:00 $215 Holiday Heater $215 $20,000
Dec 25 Mon 22:00 $64.50 Snowy SUPER SIX Bounty Turbo $64.50 $20,000
Dec 25 Mon 23:00 $50 Holiday Saver [Winter Freezeout] $50 $10,000
Dec 26 Tue 00:00 $25 Winter Tick Tock BOOM $25 $10,000
Dec 26 Tue 00:00 #18: Happy New Year Freeroll [Day 1] $0 $1,000,000
Dec 26 Tue 01:00 $108 Santa's Speed Racer $108 $10,000
Dec 26 Tue 12:30 #24: Global MILLION$ New Year Bounty Bash [Stage 1] $50 $1,000,000
Dec 26 Tue 14:00 $30 Daily Merrython $30 $15,000
Dec 26 Tue 15:30 $12.90 Bounty Hunters Holiday Special $12.90 $50,000
Dec 26 Tue 17:00 $250 Daily Main Event [Winter Freezeout] $250 $25,000
Dec 26 Tue 18:00 $150 Rotating Main Event with Special Names $150 $100,000
Dec 26 Tue 18:00 $15 Rotating MIni Main Event with Special Names $15 $50,000
Dec 26 Tue 18:00 #12: $215 Boxing Day Bounty Bash [6-Max] $215 $500,000
Dec 26 Tue 18:30 #24: Global MILLION$ New Year Bounty Bash [Stage 1] $50 $1,000,000
Dec 26 Tue 19:30 $108 Bounty Hunters Brrrrr! [Winter Freezeout] $108 $20,000
Dec 26 Tue 21:00 $215 Holiday Heater $215 $20,000
Dec 26 Tue 22:00 $64.50 Snowy SUPER SIX Bounty Turbo $64.50 $20,000
Dec 26 Tue 23:00 $50 Holiday Saver [Winter Freezeout] $50 $10,000
Dec 27 Wed 00:00 $25 Winter Tick Tock BOOM $25 $10,000
Dec 27 Wed 00:00 #15: $25 Flip & Go Ho Ho Ho Friday [Flip Stage] $25 $100,000
Dec 27 Wed 00:20 #15: $25 Flip & Go Ho Ho Ho Friday [Flip Stage] $25 $100,000
Dec 27 Wed 00:40 #15: $25 Flip & Go Ho Ho Ho Friday [Flip Stage] $25 $100,000
Dec 27 Wed 01:00 $108 Santa's Speed Racer $108 $10,000
Dec 27 Wed 01:00 #15: $25 Flip & Go Ho Ho Ho Friday [Flip Stage] $25 $100,000
Dec 27 Wed 01:20 #15: $25 Flip & Go Ho Ho Ho Friday [Flip Stage] $25 $100,000
Dec 27 Wed 01:40 #15: $25 Flip & Go Ho Ho Ho Friday [Flip Stage] $25 $100,000
Dec 27 Wed 02:00 #15: $25 Flip & Go Ho Ho Ho Friday [Flip Stage] $25 $100,000
Dec 27 Wed 02:20 #15: $25 Flip & Go Ho Ho Ho Friday [Flip Stage] $25 $100,000
Dec 27 Wed 02:40 #15: $25 Flip & Go Ho Ho Ho Friday [Flip Stage] $25 $100,000
Dec 27 Wed 03:00 #15: $25 Flip & Go Ho Ho Ho Friday [Flip Stage] $25 $100,000
Dec 27 Wed 03:20 #15: $25 Flip & Go Ho Ho Ho Friday [Flip Stage] $25 $100,000
Dec 27 Wed 03:40 #15: $25 Flip & Go Ho Ho Ho Friday [Flip Stage] $25 $100,000
Dec 27 Wed 04:00 #15: $25 Flip & Go Ho Ho Ho Friday [Flip Stage] $25 $100,000
Dec 27 Wed 04:20 #15: $25 Flip & Go Ho Ho Ho Friday [Flip Stage] $25 $100,000
Dec 27 Wed 04:40 #15: $25 Flip & Go Ho Ho Ho Friday [Flip Stage] $25 $100,000
Dec 27 Wed 05:00 #15: $25 Flip & Go Ho Ho Ho Friday [Flip Stage] $25 $100,000
Dec 27 Wed 05:20 #15: $25 Flip & Go Ho Ho Ho Friday [Flip Stage] $25 $100,000
Dec 27 Wed 05:40 #15: $25 Flip & Go Ho Ho Ho Friday [Flip Stage] $25 $100,000
Dec 27 Wed 06:00 #15: $25 Flip & Go Ho Ho Ho Friday [Flip Stage] $25 $100,000
Dec 27 Wed 06:20 #15: $25 Flip & Go Ho Ho Ho Friday [Flip Stage] $25 $100,000
Dec 27 Wed 06:40 #15: $25 Flip & Go Ho Ho Ho Friday [Flip Stage] $25 $100,000
Dec 27 Wed 07:00 #15: $25 Flip & Go Ho Ho Ho Friday [Flip Stage] $25 $100,000
Dec 27 Wed 07:20 #15: $25 Flip & Go Ho Ho Ho Friday [Flip Stage] $25 $100,000
Dec 27 Wed 07:40 #15: $25 Flip & Go Ho Ho Ho Friday [Flip Stage] $25 $100,000
Dec 27 Wed 08:00 #15: $25 Flip & Go Ho Ho Ho Friday [Flip Stage] $25 $100,000
Dec 27 Wed 08:20 #15: $25 Flip & Go Ho Ho Ho Friday [Flip Stage] $25 $100,000
Dec 27 Wed 08:40 #15: $25 Flip & Go Ho Ho Ho Friday [Flip Stage] $25 $100,000
Dec 27 Wed 09:00 #15: $25 Flip & Go Ho Ho Ho Friday [Flip Stage] $25 $100,000
Dec 27 Wed 09:20 #15: $25 Flip & Go Ho Ho Ho Friday [Flip Stage] $25 $100,000
Dec 27 Wed 09:40 #15: $25 Flip & Go Ho Ho Ho Friday [Flip Stage] $25 $100,000
Dec 27 Wed 10:00 #15: $25 Flip & Go Ho Ho Ho Friday [Flip Stage] $25 $100,000
Dec 27 Wed 10:20 #15: $25 Flip & Go Ho Ho Ho Friday [Flip Stage] $25 $100,000
Dec 27 Wed 10:40 #15: $25 Flip & Go Ho Ho Ho Friday [Flip Stage] $25 $100,000
Dec 27 Wed 11:00 #15: $25 Flip & Go Ho Ho Ho Friday [Flip Stage] $25 $100,000
Dec 27 Wed 11:20 #15: $25 Flip & Go Ho Ho Ho Friday [Flip Stage] $25 $100,000
Dec 27 Wed 11:40 #15: $25 Flip & Go Ho Ho Ho Friday [Flip Stage] $25 $100,000
Dec 27 Wed 12:00 #15: $25 Flip & Go Ho Ho Ho Friday [Flip Stage] $25 $100,000
Dec 27 Wed 12:20 #15: $25 Flip & Go Ho Ho Ho Friday [Flip Stage] $25 $100,000
Dec 27 Wed 12:30 #24: Global MILLION$ New Year Bounty Bash [Stage 1] $50 $1,000,000
Dec 27 Wed 12:40 #15: $25 Flip & Go Ho Ho Ho Friday [Flip Stage] $25 $100,000
Dec 27 Wed 13:00 #15: $25 Flip & Go Ho Ho Ho Friday [Flip Stage] $25 $100,000
Dec 27 Wed 13:20 #15: $25 Flip & Go Ho Ho Ho Friday [Flip Stage] $25 $100,000
Dec 27 Wed 13:40 #15: $25 Flip & Go Ho Ho Ho Friday [Flip Stage] $25 $100,000
Dec 27 Wed 14:00 $30 Daily Merrython $30 $15,000
Dec 27 Wed 14:00 #15: $25 Flip & Go Ho Ho Ho Friday [Flip Stage] $25 $100,000
Dec 27 Wed 14:20 #15: $25 Flip & Go Ho Ho Ho Friday [Flip Stage] $25 $100,000
Dec 27 Wed 14:40 #15: $25 Flip & Go Ho Ho Ho Friday [Flip Stage] $25 $100,000
Dec 27 Wed 15:00 #15: $25 Flip & Go Ho Ho Ho Friday [Flip Stage] $25 $100,000
Dec 27 Wed 15:20 #15: $25 Flip & Go Ho Ho Ho Friday [Flip Stage] $25 $100,000
Dec 27 Wed 15:30 $12.90 Bounty Hunters Holiday Special $12.90 $50,000
Dec 27 Wed 15:40 #15: $25 Flip & Go Ho Ho Ho Friday [Flip Stage] $25 $100,000
Dec 27 Wed 16:00 #15: $25 Flip & Go Ho Ho Ho Friday [Flip Stage] $25 $100,000
Dec 27 Wed 16:20 #15: $25 Flip & Go Ho Ho Ho Friday [Flip Stage] $25 $100,000
Dec 27 Wed 16:40 #15: $25 Flip & Go Ho Ho Ho Friday [Flip Stage] $25 $100,000
Dec 27 Wed 17:00 $250 Daily Main Event [Winter Freezeout] $250 $25,000
Dec 27 Wed 17:00 #15: $25 Flip & Go Ho Ho Ho Friday [Flip Stage] $25 $100,000
Dec 27 Wed 17:20 #15: $25 Flip & Go Ho Ho Ho Friday [Flip Stage] $25 $100,000
Dec 27 Wed 17:40 #15: $25 Flip & Go Ho Ho Ho Friday [Flip Stage] $25 $100,000
Dec 27 Wed 18:00 $150 Rotating Main Event with Special Names $150 $100,000
Dec 27 Wed 18:00 $15 Rotating MIni Main Event with Special Names $15 $50,000
Dec 27 Wed 18:00 #15: $25 Flip & Go Ho Ho Ho Friday [Flip Stage] $25 $100,000
Dec 27 Wed 18:00 #13: $525 Bounty Hunters Holiday HR $525 $500,000
Dec 27 Wed 18:20 #15: $25 Flip & Go Ho Ho Ho Friday [Flip Stage] $25 $100,000
Dec 27 Wed 18:30 #24: Global MILLION$ New Year Bounty Bash [Stage 1] $50 $1,000,000
Dec 27 Wed 18:40 #15: $25 Flip & Go Ho Ho Ho Friday [Flip Stage] $25 $100,000
Dec 27 Wed 19:00 #15: $25 Flip & Go Ho Ho Ho Friday [Flip Stage] $25 $100,000
Dec 27 Wed 19:20 #15: $25 Flip & Go Ho Ho Ho Friday [Flip Stage] $25 $100,000
Dec 27 Wed 19:30 $108 Bounty Hunters Brrrrr! [Winter Freezeout] $108 $20,000
Dec 27 Wed 19:40 #15: $25 Flip & Go Ho Ho Ho Friday [Flip Stage] $25 $100,000
Dec 27 Wed 20:00 #15: $25 Flip & Go Ho Ho Ho Friday [Flip Stage] $25 $100,000
Dec 27 Wed 20:20 #15: $25 Flip & Go Ho Ho Ho Friday [Flip Stage] $25 $100,000
Dec 27 Wed 20:40 #15: $25 Flip & Go Ho Ho Ho Friday [Flip Stage] $25 $100,000
Dec 27 Wed 21:00 $215 Holiday Heater $215 $20,000
Dec 27 Wed 21:00 #15: $25 Flip & Go Ho Ho Ho Friday [Flip Stage] $25 $100,000
Dec 27 Wed 21:20 #15: $25 Flip & Go Ho Ho Ho Friday [Flip Stage] $25 $100,000
Dec 27 Wed 21:40 #15: $25 Flip & Go Ho Ho Ho Friday [Flip Stage] $25 $100,000
Dec 27 Wed 22:00 $64.50 Snowy SUPER SIX Bounty Turbo $64.50 $20,000
Dec 27 Wed 22:00 #15: $25 Flip & Go Ho Ho Ho Friday [Flip Stage] $25 $100,000
Dec 27 Wed 22:20 #15: $25 Flip & Go Ho Ho Ho Friday [Flip Stage] $25 $100,000
Dec 27 Wed 22:40 #15: $25 Flip & Go Ho Ho Ho Friday [Flip Stage] $25 $100,000
Dec 27 Wed 23:00 $50 Holiday Saver [Winter Freezeout] $50 $10,000
Dec 27 Wed 23:00 #15: $25 Flip & Go Ho Ho Ho Friday [Flip Stage] $25 $100,000
Dec 27 Wed 23:20 #15: $25 Flip & Go Ho Ho Ho Friday [Flip Stage] $25 $100,000
Dec 27 Wed 23:40 #15: $25 Flip & Go Ho Ho Ho Friday [Flip Stage] $25 $100,000
Dec 28 Thu 00:00 $25 Winter Tick Tock BOOM $25 $10,000
Dec 28 Thu 00:00 #15: $25 Flip & Go Ho Ho Ho Friday [Flip Stage] $25 $100,000
Dec 28 Thu 00:20 #15: $25 Flip & Go Ho Ho Ho Friday [Flip Stage] $25 $100,000
Dec 28 Thu 00:40 #15: $25 Flip & Go Ho Ho Ho Friday [Flip Stage] $25 $100,000
Dec 28 Thu 01:00 $108 Santa's Speed Racer $108 $10,000
Dec 28 Thu 01:00 #15: $25 Flip & Go Ho Ho Ho Friday [Flip Stage] $25 $100,000
Dec 28 Thu 01:20 #15: $25 Flip & Go Ho Ho Ho Friday [Flip Stage] $25 $100,000
Dec 28 Thu 01:40 #15: $25 Flip & Go Ho Ho Ho Friday [Flip Stage] $25 $100,000
Dec 28 Thu 02:00 #15: $25 Flip & Go Ho Ho Ho Friday [Flip Stage] $25 $100,000
Dec 28 Thu 02:20 #15: $25 Flip & Go Ho Ho Ho Friday [Flip Stage] $25 $100,000
Dec 28 Thu 02:40 #15: $25 Flip & Go Ho Ho Ho Friday [Flip Stage] $25 $100,000
Dec 28 Thu 03:00 #15: $25 Flip & Go Ho Ho Ho Friday [Flip Stage] $25 $100,000
Dec 28 Thu 03:20 #15: $25 Flip & Go Ho Ho Ho Friday [Flip Stage] $25 $100,000
Dec 28 Thu 03:40 #15: $25 Flip & Go Ho Ho Ho Friday [Flip Stage] $25 $100,000
Dec 28 Thu 04:00 #15: $25 Flip & Go Ho Ho Ho Friday [Flip Stage] $25 $100,000
Dec 28 Thu 04:20 #15: $25 Flip & Go Ho Ho Ho Friday [Flip Stage] $25 $100,000
Dec 28 Thu 04:40 #15: $25 Flip & Go Ho Ho Ho Friday [Flip Stage] $25 $100,000
Dec 28 Thu 05:00 #15: $25 Flip & Go Ho Ho Ho Friday [Flip Stage] $25 $100,000
Dec 28 Thu 05:20 #15: $25 Flip & Go Ho Ho Ho Friday [Flip Stage] $25 $100,000
Dec 28 Thu 05:40 #15: $25 Flip & Go Ho Ho Ho Friday [Flip Stage] $25 $100,000
Dec 28 Thu 06:00 #15: $25 Flip & Go Ho Ho Ho Friday [Flip Stage] $25 $100,000
Dec 28 Thu 06:20 #15: $25 Flip & Go Ho Ho Ho Friday [Flip Stage] $25 $100,000
Dec 28 Thu 06:40 #15: $25 Flip & Go Ho Ho Ho Friday [Flip Stage] $25 $100,000
Dec 28 Thu 07:00 #15: $25 Flip & Go Ho Ho Ho Friday [Flip Stage] $25 $100,000
Dec 28 Thu 07:20 #15: $25 Flip & Go Ho Ho Ho Friday [Flip Stage] $25 $100,000
Dec 28 Thu 07:40 #15: $25 Flip & Go Ho Ho Ho Friday [Flip Stage] $25 $100,000
Dec 28 Thu 08:00 #15: $25 Flip & Go Ho Ho Ho Friday [Flip Stage] $25 $100,000
Dec 28 Thu 08:20 #15: $25 Flip & Go Ho Ho Ho Friday [Flip Stage] $25 $100,000
Dec 28 Thu 08:40 #15: $25 Flip & Go Ho Ho Ho Friday [Flip Stage] $25 $100,000
Dec 28 Thu 09:00 #15: $25 Flip & Go Ho Ho Ho Friday [Flip Stage] $25 $100,000
Dec 28 Thu 09:20 #15: $25 Flip & Go Ho Ho Ho Friday [Flip Stage] $25 $100,000
Dec 28 Thu 09:40 #15: $25 Flip & Go Ho Ho Ho Friday [Flip Stage] $25 $100,000
Dec 28 Thu 10:00 #15: $25 Flip & Go Ho Ho Ho Friday [Flip Stage] $25 $100,000
Dec 28 Thu 10:20 #15: $25 Flip & Go Ho Ho Ho Friday [Flip Stage] $25 $100,000
Dec 28 Thu 10:40 #15: $25 Flip & Go Ho Ho Ho Friday [Flip Stage] $25 $100,000
Dec 28 Thu 11:00 #15: $25 Flip & Go Ho Ho Ho Friday [Flip Stage] $25 $100,000
Dec 28 Thu 11:20 #15: $25 Flip & Go Ho Ho Ho Friday [Flip Stage] $25 $100,000
Dec 28 Thu 11:40 #15: $25 Flip & Go Ho Ho Ho Friday [Flip Stage] $25 $100,000
Dec 28 Thu 12:00 #15: $25 Flip & Go Ho Ho Ho Friday [Flip Stage] $25 $100,000
Dec 28 Thu 12:20 #15: $25 Flip & Go Ho Ho Ho Friday [Flip Stage] $25 $100,000
Dec 28 Thu 12:30 #24: Global MILLION$ New Year Bounty Bash [Stage 1] $50 $1,000,000
Dec 28 Thu 12:40 #15: $25 Flip & Go Ho Ho Ho Friday [Flip Stage] $25 $100,000
Dec 28 Thu 13:00 #15: $25 Flip & Go Ho Ho Ho Friday [Flip Stage] $25 $100,000
Dec 28 Thu 13:20 #15: $25 Flip & Go Ho Ho Ho Friday [Flip Stage] $25 $100,000
Dec 28 Thu 13:40 #15: $25 Flip & Go Ho Ho Ho Friday [Flip Stage] $25 $100,000
Dec 28 Thu 14:00 $30 Daily Merrython $30 $15,000
Dec 28 Thu 14:00 #15: $25 Flip & Go Ho Ho Ho Friday [Flip Stage] $25 $100,000
Dec 28 Thu 14:20 #15: $25 Flip & Go Ho Ho Ho Friday [Flip Stage] $25 $100,000
Dec 28 Thu 14:40 #15: $25 Flip & Go Ho Ho Ho Friday [Flip Stage] $25 $100,000
Dec 28 Thu 15:00 #15: $25 Flip & Go Ho Ho Ho Friday [Flip Stage] $25 $100,000
Dec 28 Thu 15:20 #15: $25 Flip & Go Ho Ho Ho Friday [Flip Stage] $25 $100,000
Dec 28 Thu 15:30 $12.90 Bounty Hunters Holiday Special $12.90 $50,000
Dec 28 Thu 15:40 #15: $25 Flip & Go Ho Ho Ho Friday [Flip Stage] $25 $100,000
Dec 28 Thu 16:00 #15: $25 Flip & Go Ho Ho Ho Friday [Flip Stage] $25 $100,000
Dec 28 Thu 16:20 #15: $25 Flip & Go Ho Ho Ho Friday [Flip Stage] $25 $100,000
Dec 28 Thu 16:40 #15: $25 Flip & Go Ho Ho Ho Friday [Flip Stage] $25 $100,000
Dec 28 Thu 17:00 $250 Daily Main Event [Winter Freezeout] $250 $25,000
Dec 28 Thu 17:00 #15: $25 Flip & Go Ho Ho Ho Friday [Flip Stage] $25 $100,000
Dec 28 Thu 17:20 #15: $25 Flip & Go Ho Ho Ho Friday [Flip Stage] $25 $100,000
Dec 28 Thu 17:40 #15: $25 Flip & Go Ho Ho Ho Friday [Flip Stage] $25 $100,000
Dec 28 Thu 18:00 $150 Rotating Main Event with Special Names $150 $100,000
Dec 28 Thu 18:00 $15 Rotating MIni Main Event with Special Names $15 $50,000
Dec 28 Thu 18:00 #15: $25 Flip & Go Ho Ho Ho Friday [Flip Stage] $25 $100,000
Dec 28 Thu 18:00 #14: $400 Omaholic Thursday Megastack $400 $100,000
Dec 28 Thu 18:20 #15: $25 Flip & Go Ho Ho Ho Friday [Flip Stage] $25 $100,000
Dec 28 Thu 18:30 #24: Global MILLION$ New Year Bounty Bash [Stage 1] $50 $1,000,000
Dec 28 Thu 18:40 #15: $25 Flip & Go Ho Ho Ho Friday [Flip Stage] $25 $100,000
Dec 28 Thu 19:00 #15: $25 Flip & Go Ho Ho Ho Friday [Flip Stage] $25 $100,000
Dec 28 Thu 19:20 #15: $25 Flip & Go Ho Ho Ho Friday [Flip Stage] $25 $100,000
Dec 28 Thu 19:30 $108 Bounty Hunters Brrrrr! [Winter Freezeout] $108 $20,000
Dec 28 Thu 19:40 #15: $25 Flip & Go Ho Ho Ho Friday [Flip Stage] $25 $100,000
Dec 28 Thu 20:00 #15: $25 Flip & Go Ho Ho Ho Friday [Flip Stage] $25 $100,000
Dec 28 Thu 20:20 #15: $25 Flip & Go Ho Ho Ho Friday [Flip Stage] $25 $100,000
Dec 28 Thu 20:40 #15: $25 Flip & Go Ho Ho Ho Friday [Flip Stage] $25 $100,000
Dec 28 Thu 21:00 $215 Holiday Heater $215 $20,000
Dec 28 Thu 21:00 #15: $25 Flip & Go Ho Ho Ho Friday [Flip Stage] $25 $100,000
Dec 28 Thu 21:20 #15: $25 Flip & Go Ho Ho Ho Friday [Flip Stage] $25 $100,000
Dec 28 Thu 21:40 #15: $25 Flip & Go Ho Ho Ho Friday [Flip Stage] $25 $100,000
Dec 28 Thu 22:00 $64.50 Snowy SUPER SIX Bounty Turbo $64.50 $20,000
Dec 28 Thu 22:00 #15: $25 Flip & Go Ho Ho Ho Friday [Flip Stage] $25 $100,000
Dec 28 Thu 22:20 #15: $25 Flip & Go Ho Ho Ho Friday [Flip Stage] $25 $100,000
Dec 28 Thu 22:40 #15: $25 Flip & Go Ho Ho Ho Friday [Flip Stage] $25 $100,000
Dec 28 Thu 23:00 $50 Holiday Saver [Winter Freezeout] $50 $10,000
Dec 28 Thu 23:00 #15: $25 Flip & Go Ho Ho Ho Friday [Flip Stage] $25 $100,000
Dec 28 Thu 23:20 #15: $25 Flip & Go Ho Ho Ho Friday [Flip Stage] $25 $100,000
Dec 28 Thu 23:40 #15: $25 Flip & Go Ho Ho Ho Friday [Flip Stage] $25 $100,000
Dec 29 Fri 00:00 $25 Winter Tick Tock BOOM $25 $10,000
Dec 29 Fri 00:00 #15: $25 Flip & Go Ho Ho Ho Friday [Flip Stage] $25 $100,000
Dec 29 Fri 00:20 #15: $25 Flip & Go Ho Ho Ho Friday [Flip Stage] $25 $100,000
Dec 29 Fri 00:40 #15: $25 Flip & Go Ho Ho Ho Friday [Flip Stage] $25 $100,000
Dec 29 Fri 01:00 $108 Santa's Speed Racer $108 $10,000
Dec 29 Fri 01:00 #15: $25 Flip & Go Ho Ho Ho Friday [Flip Stage] $25 $100,000
Dec 29 Fri 01:20 #15: $25 Flip & Go Ho Ho Ho Friday [Flip Stage] $25 $100,000
Dec 29 Fri 01:40 #15: $25 Flip & Go Ho Ho Ho Friday [Flip Stage] $25 $100,000
Dec 29 Fri 02:00 #15: $25 Flip & Go Ho Ho Ho Friday [Flip Stage] $25 $100,000
Dec 29 Fri 02:20 #15: $25 Flip & Go Ho Ho Ho Friday [Flip Stage] $25 $100,000
Dec 29 Fri 02:40 #15: $25 Flip & Go Ho Ho Ho Friday [Flip Stage] $25 $100,000
Dec 29 Fri 03:00 #15: $25 Flip & Go Ho Ho Ho Friday [Flip Stage] $25 $100,000
Dec 29 Fri 03:20 #15: $25 Flip & Go Ho Ho Ho Friday [Flip Stage] $25 $100,000
Dec 29 Fri 03:40 #15: $25 Flip & Go Ho Ho Ho Friday [Flip Stage] $25 $100,000
Dec 29 Fri 04:00 #15: $25 Flip & Go Ho Ho Ho Friday [Flip Stage] $25 $100,000
Dec 29 Fri 04:20 #15: $25 Flip & Go Ho Ho Ho Friday [Flip Stage] $25 $100,000
Dec 29 Fri 04:40 #15: $25 Flip & Go Ho Ho Ho Friday [Flip Stage] $25 $100,000
Dec 29 Fri 05:00 #15: $25 Flip & Go Ho Ho Ho Friday [Flip Stage] $25 $100,000
Dec 29 Fri 05:20 #15: $25 Flip & Go Ho Ho Ho Friday [Flip Stage] $25 $100,000
Dec 29 Fri 05:40 #15: $25 Flip & Go Ho Ho Ho Friday [Flip Stage] $25 $100,000
Dec 29 Fri 06:00 #15: $25 Flip & Go Ho Ho Ho Friday [Flip Stage] $25 $100,000
Dec 29 Fri 06:20 #15: $25 Flip & Go Ho Ho Ho Friday [Flip Stage] $25 $100,000
Dec 29 Fri 06:40 #15: $25 Flip & Go Ho Ho Ho Friday [Flip Stage] $25 $100,000
Dec 29 Fri 07:00 #15: $25 Flip & Go Ho Ho Ho Friday [Flip Stage] $25 $100,000
Dec 29 Fri 07:20 #15: $25 Flip & Go Ho Ho Ho Friday [Flip Stage] $25 $100,000
Dec 29 Fri 07:40 #15: $25 Flip & Go Ho Ho Ho Friday [Flip Stage] $25 $100,000
Dec 29 Fri 08:00 #15: $25 Flip & Go Ho Ho Ho Friday [Flip Stage] $25 $100,000
Dec 29 Fri 08:20 #15: $25 Flip & Go Ho Ho Ho Friday [Flip Stage] $25 $100,000
Dec 29 Fri 08:40 #15: $25 Flip & Go Ho Ho Ho Friday [Flip Stage] $25 $100,000
Dec 29 Fri 09:00 #15: $25 Flip & Go Ho Ho Ho Friday [Flip Stage] $25 $100,000
Dec 29 Fri 09:20 #15: $25 Flip & Go Ho Ho Ho Friday [Flip Stage] $25 $100,000
Dec 29 Fri 09:40 #15: $25 Flip & Go Ho Ho Ho Friday [Flip Stage] $25 $100,000
Dec 29 Fri 10:00 #15: $25 Flip & Go Ho Ho Ho Friday [Flip Stage] $25 $100,000
Dec 29 Fri 10:20 #15: $25 Flip & Go Ho Ho Ho Friday [Flip Stage] $25 $100,000
Dec 29 Fri 10:40 #15: $25 Flip & Go Ho Ho Ho Friday [Flip Stage] $25 $100,000
Dec 29 Fri 11:00 #15: $25 Flip & Go Ho Ho Ho Friday [Flip Stage] $25 $100,000
Dec 29 Fri 11:20 #15: $25 Flip & Go Ho Ho Ho Friday [Flip Stage] $25 $100,000
Dec 29 Fri 11:40 #15: $25 Flip & Go Ho Ho Ho Friday [Flip Stage] $25 $100,000
Dec 29 Fri 12:00 #15: $25 Flip & Go Ho Ho Ho Friday [Flip Stage] $25 $100,000
Dec 29 Fri 12:20 #15: $25 Flip & Go Ho Ho Ho Friday [Flip Stage] $25 $100,000
Dec 29 Fri 12:30 #24: Global MILLION$ New Year Bounty Bash [Stage 1] $50 $1,000,000
Dec 29 Fri 12:40 #15: $25 Flip & Go Ho Ho Ho Friday [Flip Stage] $25 $100,000
Dec 29 Fri 13:00 #15: $25 Flip & Go Ho Ho Ho Friday [Flip Stage] $25 $100,000
Dec 29 Fri 13:10 #15: $25 Flip & Go Ho Ho Ho Friday [Flip Stage] $25 $100,000
Dec 29 Fri 13:20 #15: $25 Flip & Go Ho Ho Ho Friday [Flip Stage] $25 $100,000
Dec 29 Fri 13:30 #15: $25 Flip & Go Ho Ho Ho Friday [Flip Stage] $25 $100,000
Dec 29 Fri 13:40 #15: $25 Flip & Go Ho Ho Ho Friday [Flip Stage] $25 $100,000
Dec 29 Fri 13:50 #15: $25 Flip & Go Ho Ho Ho Friday [Flip Stage] $25 $100,000
Dec 29 Fri 14:00 $30 Daily Merrython $30 $15,000
Dec 29 Fri 14:00 #15: $25 Flip & Go Ho Ho Ho Friday [Flip Stage] $25 $100,000
Dec 29 Fri 14:10 #15: $25 Flip & Go Ho Ho Ho Friday [Flip Stage] $25 $100,000
Dec 29 Fri 14:20 #15: $25 Flip & Go Ho Ho Ho Friday [Flip Stage] $25 $100,000
Dec 29 Fri 14:30 #15: $25 Flip & Go Ho Ho Ho Friday [Flip Stage] $25 $100,000
Dec 29 Fri 14:40 #15: $25 Flip & Go Ho Ho Ho Friday [Flip Stage] $25 $100,000
Dec 29 Fri 14:50 #15: $25 Flip & Go Ho Ho Ho Friday [Flip Stage] $25 $100,000
Dec 29 Fri 15:00 #15: $25 Flip & Go Ho Ho Ho Friday [Flip Stage] $25 $100,000
Dec 29 Fri 15:10 #15: $25 Flip & Go Ho Ho Ho Friday [Flip Stage] $25 $100,000
Dec 29 Fri 15:20 #15: $25 Flip & Go Ho Ho Ho Friday [Flip Stage] $25 $100,000
Dec 29 Fri 15:30 $12.90 Bounty Hunters Holiday Special $12.90 $50,000
Dec 29 Fri 15:30 #15: $25 Flip & Go Ho Ho Ho Friday [Flip Stage] $25 $100,000
Dec 29 Fri 15:35 #15: $25 Flip & Go Ho Ho Ho Friday [Flip Stage] $25 $100,000
Dec 29 Fri 15:40 #15: $25 Flip & Go Ho Ho Ho Friday [Flip Stage] $25 $100,000
Dec 29 Fri 15:45 #15: $25 Flip & Go Ho Ho Ho Friday [Flip Stage] $25 $100,000
Dec 29 Fri 15:50 #15: $25 Flip & Go Ho Ho Ho Friday [Flip Stage] $25 $100,000
Dec 29 Fri 15:55 #15: $25 Flip & Go Ho Ho Ho Friday [Flip Stage] $25 $100,000
Dec 29 Fri 16:00 #15: $25 Flip & Go Ho Ho Ho Friday [Flip Stage] $25 $100,000
Dec 29 Fri 16:05 #15: $25 Flip & Go Ho Ho Ho Friday [Flip Stage] $25 $100,000
Dec 29 Fri 16:10 #15: $25 Flip & Go Ho Ho Ho Friday [Flip Stage] $25 $100,000
Dec 29 Fri 16:15 #15: $25 Flip & Go Ho Ho Ho Friday [Flip Stage] $25 $100,000
Dec 29 Fri 16:20 #15: $25 Flip & Go Ho Ho Ho Friday [Flip Stage] $25 $100,000
Dec 29 Fri 16:25 #15: $25 Flip & Go Ho Ho Ho Friday [Flip Stage] $25 $100,000
Dec 29 Fri 16:30 #15: $25 Flip & Go Ho Ho Ho Friday [Flip Stage] $25 $100,000
Dec 29 Fri 16:35 #15: $25 Flip & Go Ho Ho Ho Friday [Flip Stage] $25 $100,000
Dec 29 Fri 16:40 #15: $25 Flip & Go Ho Ho Ho Friday [Flip Stage] $25 $100,000
Dec 29 Fri 16:45 #15: $25 Flip & Go Ho Ho Ho Friday [Flip Stage] $25 $100,000
Dec 29 Fri 16:50 #15: $25 Flip & Go Ho Ho Ho Friday [Flip Stage] $25 $100,000
Dec 29 Fri 16:55 #15: $25 Flip & Go Ho Ho Ho Friday [Flip Stage] $25 $100,000
Dec 29 Fri 17:00 $250 Daily Main Event [Winter Freezeout] $250 $25,000
Dec 29 Fri 17:00 #15: $25 Flip & Go Ho Ho Ho Friday [Flip Stage] $25 $100,000
Dec 29 Fri 17:05 #15: $25 Flip & Go Ho Ho Ho Friday [Flip Stage] $25 $100,000
Dec 29 Fri 17:10 #15: $25 Flip & Go Ho Ho Ho Friday [Flip Stage] $25 $100,000
Dec 29 Fri 17:15 #15: $25 Flip & Go Ho Ho Ho Friday [Flip Stage] $25 $100,000
Dec 29 Fri 17:20 #15: $25 Flip & Go Ho Ho Ho Friday [Flip Stage] $25 $100,000
Dec 29 Fri 17:25 #15: $25 Flip & Go Ho Ho Ho Friday [Flip Stage] $25 $100,000
Dec 29 Fri 17:30 #15: $25 Flip & Go Ho Ho Ho Friday [Flip Stage] $25 $100,000
Dec 29 Fri 18:00 $150 Rotating Main Event with Special Names $150 $100,000
Dec 29 Fri 18:00 $15 Rotating MIni Main Event with Special Names $15 $50,000
Dec 29 Fri 18:00 #15: $25 Flip & Go Ho Ho Ho Friday [Go Stage] $25 $100,000
Dec 29 Fri 18:30 #24: Global MILLION$ New Year Bounty Bash [Stage 1] $50 $1,000,000
Dec 29 Fri 19:30 $108 Bounty Hunters Brrrrr! [Winter Freezeout] $108 $20,000
Dec 29 Fri 21:00 $215 Holiday Heater $215 $20,000
Dec 29 Fri 22:00 $64.50 Snowy SUPER SIX Bounty Turbo $64.50 $20,000
Dec 29 Fri 23:00 $50 Holiday Saver [Winter Freezeout] $50 $10,000
Dec 30 Sat 00:00 $25 Winter Tick Tock BOOM $25 $10,000
Dec 30 Sat 01:00 $108 Santa's Speed Racer $108 $10,000
Dec 30 Sat 12:30 #24: Global MILLION$ New Year Bounty Bash [Stage 1] $50 $1,000,000
Dec 30 Sat 14:00 $30 Daily Merrython $30 $15,000
Dec 30 Sat 15:30 $12.90 Bounty Hunters Holiday Special $12.90 $50,000
Dec 30 Sat 17:00 $250 Daily Main Event [Winter Freezeout] $250 $25,000
Dec 30 Sat 18:00 $150 Rotating Main Event with Special Names $150 $100,000
Dec 30 Sat 18:00 $15 Rotating MIni Main Event with Special Names $15 $50,000
Dec 30 Sat 18:00 #16: $108 GGMasters Extra Bonus Bounty $108 $150,000
Dec 30 Sat 18:30 #24: Global MILLION$ New Year Bounty Bash [Stage 1] $50 $1,000,000
Dec 30 Sat 19:30 $108 Bounty Hunters Brrrrr! [Winter Freezeout] $108 $20,000
Dec 30 Sat 21:00 $215 Holiday Heater $215 $20,000
Dec 30 Sat 22:00 $64.50 Snowy SUPER SIX Bounty Turbo $64.50 $20,000
Dec 30 Sat 23:00 $50 Holiday Saver [Winter Freezeout] $50 $10,000
Dec 31 Sun 00:00 $25 Winter Tick Tock BOOM $25 $10,000
Dec 31 Sun 01:00 $108 Santa's Speed Racer $108 $10,000
Dec 31 Sun 12:00 $125 Sunday Winter Kick-Off $125 $75,000
Dec 31 Sun 12:30 #24: Global MILLION$ New Year Bounty Bash [Stage 1] $50 $1,000,000
Dec 31 Sun 13:00 $25 Sunday MERRY Monster Stack $25 $75,000
Dec 31 Sun 14:00 $300 Sunday Merrython $300 $75,000
Dec 31 Sun 14:30 $85.50 Bounty Blast $85.50 $75,000
Dec 31 Sun 15:00 $125 Grand Winter Prix $125 $150,000
Dec 31 Sun 15:30 $44 Bounty Frozen FORTY STACK $44 $200,000
Dec 31 Sun 16:00 $88 Sunday CRAZY EIGHTS $88 $88,000
Dec 31 Sun 16:30 $54 Bounty Hunters MAIN EVENT $54 $500,000
Dec 31 Sun 17:30 $215 Bounty Winter BIG GAMES $215 $300,000
Dec 31 Sun 17:40 $54 Omaholic Bounty SNOW Showdown $54 $25,000
Dec 31 Sun 18:00 $36.50 Sunday SNOW GIANT $36.50 $150,000
Dec 31 Sun 18:00 #17: $11 Sunday Hundred Grand NYE Edition $11 $100,000
Dec 31 Sun 18:30 $320 GGMasters Bounty Winter FREEZEOUT $320 $350,000
Dec 31 Sun 18:30 #24: Global MILLION$ New Year Bounty Bash [Stage 1] $50 $1,000,000
Dec 31 Sun 19:00 $125 Sunday HUNDRED Stack $125 $150,000
Dec 31 Sun 19:30 $215 Omholic Bounty MAIN EVENT $215 $50,000
Dec 31 Sun 20:00 $77 LUCKY SEVENS Superstack Turbo $77 $100,000
Dec 31 Sun 21:00 $250 Sunday Cooler [Bounty Turbo] $250 $125,000
Dec 31 Sun 21:30 #25: Omaholic MILLION$ New Year Bounty Bash [Stage 1] $54 $250,000
Dec 31 Sun 22:00 $64.50 Snowy SUPER SIX Bounty Turbo $64.50 $60,000
Dec 31 Sun 23:00 $50 Sunday Saver [Winter Freezeout] $50 $50,000
Jan 1 Mon 00:00 $25 Winter Tick Tock BOOM $25 $100,000
Jan 1 Mon 00:30 #24: Global MILLION$ New Year Bounty Bash [Stage 1] $50 $1,000,000
Jan 1 Mon 00:30 #25: Omaholic MILLION$ New Year Bounty Bash [Stage 1] $54 $250,000
Jan 1 Mon 01:00 $108 Santa's Speed Racer $108 $125,000
Jan 1 Mon 03:30 #25: Omaholic MILLION$ New Year Bounty Bash [Stage 1] $54 $250,000
Jan 1 Mon 06:30 #24: Global MILLION$ New Year Bounty Bash [Stage 1] $50 $1,000,000
Jan 1 Mon 06:30 #25: Omaholic MILLION$ New Year Bounty Bash [Stage 1] $54 $250,000
Jan 1 Mon 09:30 #25: Omaholic MILLION$ New Year Bounty Bash [Stage 1] $54 $250,000
Jan 1 Mon 12:30 #24: Global MILLION$ New Year Bounty Bash [Stage 1] $50 $1,000,000
Jan 1 Mon 12:30 #25: Omaholic MILLION$ New Year Bounty Bash [Stage 1] $54 $250,000
Jan 1 Mon 13:30 #31: Winter Giveaway Series Grand Finale [Day 1] $250 $2,024,000
Jan 1 Mon 14:00 $30 Daily Merrython $30 $15,000
Jan 1 Mon 15:30 $12.90 Bounty Hunters Holiday Special $12.90 $50,000
Jan 1 Mon 15:30 #25: Omaholic MILLION$ New Year Bounty Bash [Stage 1] $54 $250,000
Jan 1 Mon 16:30 #24: Global MILLION$ New Year Bounty Bash [Stage 1] $50 $1,000,000
Jan 1 Mon 17:00 $250 Daily Main Event [Winter Freezeout] $250 $25,000
Jan 1 Mon 18:00 $150 Rotating Main Event with Special Names $150 $100,000
Jan 1 Mon 18:00 $15 Rotating MIni Main Event with Special Names $15 $50,000
Jan 1 Mon 18:00 #18: Happy New Year Freeroll [Final Day] $0 $1,000,000
Jan 1 Mon 18:30 #25: Omaholic MILLION$ New Year Bounty Bash [Stage 1] $54 $250,000
Jan 1 Mon 18:40 #24: Global MILLION$ New Year Bounty Bash [Stage 1] $50 $1,000,000
Jan 1 Mon 19:30 $108 Bounty Hunters Brrrrr! [Winter Freezeout] $108 $20,000
Jan 1 Mon 19:30 #31: Winter Giveaway Series Grand Finale [Day 1] $250 $2,024,000
Jan 1 Mon 20:30 #24: Global MILLION$ New Year Bounty Bash [Stage 1] $50 $1,000,000
Jan 1 Mon 21:00 $215 Holiday Heater $215 $20,000
Jan 1 Mon 21:30 #25: Omaholic MILLION$ New Year Bounty Bash [Stage 1] $54 $250,000
Jan 1 Mon 22:00 $64.50 Snowy SUPER SIX Bounty Turbo $64.50 $20,000
Jan 1 Mon 22:30 #24: Global MILLION$ New Year Bounty Bash [Stage 1] $50 $1,000,000
Jan 1 Mon 23:00 $50 Holiday Saver [Winter Freezeout] $50 $10,000
Jan 2 Tue 00:00 $25 Winter Tick Tock BOOM $25 $10,000
Jan 2 Tue 00:30 #24: Global MILLION$ New Year Bounty Bash [Stage 1] $50 $1,000,000
Jan 2 Tue 00:30 #25: Omaholic MILLION$ New Year Bounty Bash [Stage 1] $54 $250,000
Jan 2 Tue 01:00 $108 Santa's Speed Racer $108 $10,000
Jan 2 Tue 02:30 #24: Global MILLION$ New Year Bounty Bash [Stage 1] $50 $1,000,000
Jan 2 Tue 03:30 #25: Omaholic MILLION$ New Year Bounty Bash [Stage 1] $54 $250,000
Jan 2 Tue 04:30 #24: Global MILLION$ New Year Bounty Bash [Stage 1] $50 $1,000,000
Jan 2 Tue 06:30 #24: Global MILLION$ New Year Bounty Bash [Stage 1] $50 $1,000,000
Jan 2 Tue 06:30 #25: Omaholic MILLION$ New Year Bounty Bash [Stage 1] $54 $250,000
Jan 2 Tue 08:30 #24: Global MILLION$ New Year Bounty Bash [Stage 1] $50 $1,000,000
Jan 2 Tue 09:30 #25: Omaholic MILLION$ New Year Bounty Bash [Stage 1] $54 $250,000
Jan 2 Tue 10:30 #24: Global MILLION$ New Year Bounty Bash [Stage 1] $50 $1,000,000
Jan 2 Tue 12:30 #24: Global MILLION$ New Year Bounty Bash [Stage 1] $50 $1,000,000
Jan 2 Tue 12:30 #25: Omaholic MILLION$ New Year Bounty Bash [Stage 1] $54 $250,000
Jan 2 Tue 13:30 #31: Winter Giveaway Series Grand Finale [Day 1] $250 $2,024,000
Jan 2 Tue 14:00 $30 Daily Merrython $30 $15,000
Jan 2 Tue 14:30 #24: Global MILLION$ New Year Bounty Bash [Stage 1] $50 $1,000,000
Jan 2 Tue 15:30 $12.90 Bounty Hunters Holiday Special $12.90 $50,000
Jan 2 Tue 15:30 #25: Omaholic MILLION$ New Year Bounty Bash [Stage 1] $54 $250,000
Jan 2 Tue 16:30 #24: Global MILLION$ New Year Bounty Bash [Stage 1] $50 $1,000,000
Jan 2 Tue 17:00 $250 Daily Main Event [Winter Freezeout] $250 $25,000
Jan 2 Tue 18:00 $150 Rotating Main Event with Special Names $150 $100,000
Jan 2 Tue 18:00 $15 Rotating MIni Main Event with Special Names $15 $50,000
Jan 2 Tue 18:00 #19: $50 Merry Marathon $50 $200,000
Jan 2 Tue 18:30 #24: Global MILLION$ New Year Bounty Bash [Stage 1] $50 $1,000,000
Jan 2 Tue 18:30 #25: Omaholic MILLION$ New Year Bounty Bash [Stage 1] $54 $250,000
Jan 2 Tue 19:30 $108 Bounty Hunters Brrrrr! [Winter Freezeout] $108 $20,000
Jan 2 Tue 19:30 #31: Winter Giveaway Series Grand Finale [Day 1] $250 $2,024,000
Jan 2 Tue 20:30 #24: Global MILLION$ New Year Bounty Bash [Stage 1] $50 $1,000,000
Jan 2 Tue 21:00 $215 Holiday Heater $215 $20,000
Jan 2 Tue 21:30 #25: Omaholic MILLION$ New Year Bounty Bash [Stage 1] $54 $250,000
Jan 2 Tue 22:00 $64.50 Snowy SUPER SIX Bounty Turbo $64.50 $20,000
Jan 2 Tue 22:30 #24: Global MILLION$ New Year Bounty Bash [Stage 1] $50 $1,000,000
Jan 2 Tue 23:00 $50 Holiday Saver [Winter Freezeout] $50 $10,000
Jan 3 Wed 00:00 $25 Winter Tick Tock BOOM $25 $10,000
Jan 3 Wed 00:30 #24: Global MILLION$ New Year Bounty Bash [Stage 1] $50 $1,000,000
Jan 3 Wed 00:30 #25: Omaholic MILLION$ New Year Bounty Bash [Stage 1] $54 $250,000
Jan 3 Wed 01:00 $108 Santa's Speed Racer $108 $10,000
Jan 3 Wed 02:30 #24: Global MILLION$ New Year Bounty Bash [Stage 1] $50 $1,000,000
Jan 3 Wed 03:30 #25: Omaholic MILLION$ New Year Bounty Bash [Stage 1] $54 $250,000
Jan 3 Wed 04:30 #24: Global MILLION$ New Year Bounty Bash [Stage 1] $50 $1,000,000
Jan 3 Wed 06:30 #24: Global MILLION$ New Year Bounty Bash [Stage 1] $50 $1,000,000
Jan 3 Wed 06:30 #25: Omaholic MILLION$ New Year Bounty Bash [Stage 1] $54 $250,000
Jan 3 Wed 08:30 #24: Global MILLION$ New Year Bounty Bash [Stage 1] $50 $1,000,000
Jan 3 Wed 09:30 #25: Omaholic MILLION$ New Year Bounty Bash [Stage 1] $54 $250,000
Jan 3 Wed 10:30 #24: Global MILLION$ New Year Bounty Bash [Stage 1] $50 $1,000,000
Jan 3 Wed 12:30 #24: Global MILLION$ New Year Bounty Bash [Stage 1] $50 $1,000,000
Jan 3 Wed 12:30 #25: Omaholic MILLION$ New Year Bounty Bash [Stage 1] $54 $250,000
Jan 3 Wed 13:30 #31: Winter Giveaway Series Grand Finale [Day 1] $250 $2,024,000
Jan 3 Wed 14:00 $30 Daily Merrython $30 $15,000
Jan 3 Wed 14:30 #24: Global MILLION$ New Year Bounty Bash [Stage 1] $50 $1,000,000
Jan 3 Wed 15:30 $12.90 Bounty Hunters Holiday Special $12.90 $50,000
Jan 3 Wed 15:30 #25: Omaholic MILLION$ New Year Bounty Bash [Stage 1] $54 $250,000
Jan 3 Wed 16:30 #24: Global MILLION$ New Year Bounty Bash [Stage 1] $50 $1,000,000
Jan 3 Wed 17:00 $250 Daily Main Event [Winter Freezeout] $250 $25,000
Jan 3 Wed 18:00 $150 Rotating Main Event with Special Names $150 $100,000
Jan 3 Wed 18:00 $15 Rotating MIni Main Event with Special Names $15 $50,000
Jan 3 Wed 18:00 #20: $25 Ultra Stack $25 $100,000
Jan 3 Wed 18:30 #24: Global MILLION$ New Year Bounty Bash [Stage 1] $50 $1,000,000
Jan 3 Wed 18:30 #25: Omaholic MILLION$ New Year Bounty Bash [Stage 1] $54 $250,000
Jan 3 Wed 19:30 $108 Bounty Hunters Brrrrr! [Winter Freezeout] $108 $20,000
Jan 3 Wed 19:30 #31: Winter Giveaway Series Grand Finale [Day 1] $250 $2,024,000
Jan 3 Wed 20:30 #24: Global MILLION$ New Year Bounty Bash [Stage 1] $50 $1,000,000
Jan 3 Wed 21:00 $215 Holiday Heater $215 $20,000
Jan 3 Wed 21:30 #25: Omaholic MILLION$ New Year Bounty Bash [Stage 1] $54 $250,000
Jan 3 Wed 22:00 $64.50 Snowy SUPER SIX Bounty Turbo $64.50 $20,000
Jan 3 Wed 22:30 #24: Global MILLION$ New Year Bounty Bash [Stage 1] $50 $1,000,000
Jan 3 Wed 23:00 $50 Holiday Saver [Winter Freezeout] $50 $10,000
Jan 4 Thu 00:00 $25 Winter Tick Tock BOOM $25 $10,000
Jan 4 Thu 00:30 #24: Global MILLION$ New Year Bounty Bash [Stage 1] $50 $1,000,000
Jan 4 Thu 00:30 #25: Omaholic MILLION$ New Year Bounty Bash [Stage 1] $54 $250,000
Jan 4 Thu 01:00 $108 Santa's Speed Racer $108 $10,000
Jan 4 Thu 02:30 #24: Global MILLION$ New Year Bounty Bash [Stage 1] $50 $1,000,000
Jan 4 Thu 03:30 #25: Omaholic MILLION$ New Year Bounty Bash [Stage 1] $54 $250,000
Jan 4 Thu 04:30 #24: Global MILLION$ New Year Bounty Bash [Stage 1] $50 $1,000,000
Jan 4 Thu 06:30 #24: Global MILLION$ New Year Bounty Bash [Stage 1] $50 $1,000,000
Jan 4 Thu 06:30 #25: Omaholic MILLION$ New Year Bounty Bash [Stage 1] $54 $250,000
Jan 4 Thu 08:30 #24: Global MILLION$ New Year Bounty Bash [Stage 1] $50 $1,000,000
Jan 4 Thu 09:30 #25: Omaholic MILLION$ New Year Bounty Bash [Stage 1] $54 $250,000
Jan 4 Thu 10:30 #24: Global MILLION$ New Year Bounty Bash [Stage 1] $50 $1,000,000
Jan 4 Thu 12:30 #24: Global MILLION$ New Year Bounty Bash [Stage 1] $50 $1,000,000
Jan 4 Thu 12:30 #25: Omaholic MILLION$ New Year Bounty Bash [Stage 1] $54 $250,000
Jan 4 Thu 13:30 #31: Winter Giveaway Series Grand Finale [Day 1] $250 $2,024,000
Jan 4 Thu 14:00 $30 Daily Merrython $30 $15,000
Jan 4 Thu 14:30 #24: Global MILLION$ New Year Bounty Bash [Stage 1] $50 $1,000,000
Jan 4 Thu 15:30 $12.90 Bounty Hunters Holiday Special $12.90 $50,000
Jan 4 Thu 15:30 #25: Omaholic MILLION$ New Year Bounty Bash [Stage 1] $54 $250,000
Jan 4 Thu 16:30 #24: Global MILLION$ New Year Bounty Bash [Stage 1] $50 $1,000,000
Jan 4 Thu 17:00 $250 Daily Main Event [Winter Freezeout] $250 $25,000
Jan 4 Thu 18:00 $150 Rotating Main Event with Special Names $150 $100,000
Jan 4 Thu 18:00 $15 Rotating MIni Main Event with Special Names $15 $50,000
Jan 4 Thu 18:00 #21: $105 Crystal Ball [Mystery Bounty] $105 $300,000
Jan 4 Thu 18:30 #24: Global MILLION$ New Year Bounty Bash [Stage 1] $50 $1,000,000
Jan 4 Thu 18:30 #25: Omaholic MILLION$ New Year Bounty Bash [Stage 1] $54 $250,000
Jan 4 Thu 19:30 $108 Bounty Hunters Brrrrr! [Winter Freezeout] $108 $20,000
Jan 4 Thu 19:30 #31: Winter Giveaway Series Grand Finale [Day 1] $250 $2,024,000
Jan 4 Thu 20:30 #24: Global MILLION$ New Year Bounty Bash [Stage 1] $50 $1,000,000
Jan 4 Thu 21:00 $215 Holiday Heater $215 $20,000
Jan 4 Thu 21:30 #25: Omaholic MILLION$ New Year Bounty Bash [Stage 1] $54 $250,000
Jan 4 Thu 22:00 $64.50 Snowy SUPER SIX Bounty Turbo $64.50 $20,000
Jan 4 Thu 22:30 #24: Global MILLION$ New Year Bounty Bash [Stage 1] $50 $1,000,000
Jan 4 Thu 23:00 $50 Holiday Saver [Winter Freezeout] $50 $10,000
Jan 5 Fri 00:00 $25 Winter Tick Tock BOOM $25 $10,000
Jan 5 Fri 00:30 #24: Global MILLION$ New Year Bounty Bash [Stage 1] $50 $1,000,000
Jan 5 Fri 00:30 #25: Omaholic MILLION$ New Year Bounty Bash [Stage 1] $54 $250,000
Jan 5 Fri 01:00 $108 Santa's Speed Racer $108 $10,000
Jan 5 Fri 02:30 #24: Global MILLION$ New Year Bounty Bash [Stage 1] $50 $1,000,000
Jan 5 Fri 03:30 #25: Omaholic MILLION$ New Year Bounty Bash [Stage 1] $54 $250,000
Jan 5 Fri 04:30 #24: Global MILLION$ New Year Bounty Bash [Stage 1] $50 $1,000,000
Jan 5 Fri 06:30 #24: Global MILLION$ New Year Bounty Bash [Stage 1] $50 $1,000,000
Jan 5 Fri 06:30 #25: Omaholic MILLION$ New Year Bounty Bash [Stage 1] $54 $250,000
Jan 5 Fri 08:30 #24: Global MILLION$ New Year Bounty Bash [Stage 1] $50 $1,000,000
Jan 5 Fri 09:30 #25: Omaholic MILLION$ New Year Bounty Bash [Stage 1] $54 $250,000
Jan 5 Fri 10:30 #24: Global MILLION$ New Year Bounty Bash [Stage 1] $50 $1,000,000
Jan 5 Fri 12:30 #24: Global MILLION$ New Year Bounty Bash [Stage 1] $50 $1,000,000
Jan 5 Fri 12:30 #25: Omaholic MILLION$ New Year Bounty Bash [Stage 1] $54 $250,000
Jan 5 Fri 13:30 #31: Winter Giveaway Series Grand Finale [Day 1] $250 $2,024,000
Jan 5 Fri 14:00 $30 Daily Merrython $30 $15,000
Jan 5 Fri 14:30 #24: Global MILLION$ New Year Bounty Bash [Stage 1] $50 $1,000,000
Jan 5 Fri 15:30 $12.90 Bounty Hunters Holiday Special $12.90 $50,000
Jan 5 Fri 15:30 #25: Omaholic MILLION$ New Year Bounty Bash [Stage 1] $54 $250,000
Jan 5 Fri 16:30 #24: Global MILLION$ New Year Bounty Bash [Stage 1] $50 $1,000,000
Jan 5 Fri 17:00 $250 Daily Main Event [Winter Freezeout] $250 $25,000
Jan 5 Fri 18:00 $150 Rotating Main Event with Special Names $150 $100,000
Jan 5 Fri 18:00 $15 Rotating MIni Main Event with Special Names $15 $50,000
Jan 5 Fri 18:00 #22: $250 TGIF Super Hyper Turbo [6-Max] $250 $50,000
Jan 5 Fri 18:30 #24: Global MILLION$ New Year Bounty Bash [Stage 1] $50 $1,000,000
Jan 5 Fri 18:30 #25: Omaholic MILLION$ New Year Bounty Bash [Stage 1] $54 $250,000
Jan 5 Fri 19:30 $108 Bounty Hunters Brrrrr! [Winter Freezeout] $108 $20,000
Jan 5 Fri 19:30 #31: Winter Giveaway Series Grand Finale [Day 1] $250 $2,024,000
Jan 5 Fri 20:30 #24: Global MILLION$ New Year Bounty Bash [Stage 1] $50 $1,000,000
Jan 5 Fri 21:00 $215 Holiday Heater $215 $20,000
Jan 5 Fri 21:30 #25: Omaholic MILLION$ New Year Bounty Bash [Stage 1] $54 $250,000
Jan 5 Fri 22:00 $64.50 Snowy SUPER SIX Bounty Turbo $64.50 $20,000
Jan 5 Fri 22:30 #24: Global MILLION$ New Year Bounty Bash [Stage 1] $50 $1,000,000
Jan 5 Fri 23:00 $50 Holiday Saver [Winter Freezeout] $50 $10,000
Jan 6 Sat 00:00 $25 Winter Tick Tock BOOM $25 $10,000
Jan 6 Sat 00:30 #24: Global MILLION$ New Year Bounty Bash [Stage 1] $50 $1,000,000
Jan 6 Sat 00:30 #25: Omaholic MILLION$ New Year Bounty Bash [Stage 1] $54 $250,000
Jan 6 Sat 01:00 $108 Santa's Speed Racer $108 $10,000
Jan 6 Sat 02:30 #24: Global MILLION$ New Year Bounty Bash [Stage 1] $50 $1,000,000
Jan 6 Sat 03:30 #25: Omaholic MILLION$ New Year Bounty Bash [Stage 1] $54 $250,000
Jan 6 Sat 04:30 #24: Global MILLION$ New Year Bounty Bash [Stage 1] $50 $1,000,000
Jan 6 Sat 06:30 #24: Global MILLION$ New Year Bounty Bash [Stage 1] $50 $1,000,000
Jan 6 Sat 06:30 #25: Omaholic MILLION$ New Year Bounty Bash [Stage 1] $54 $250,000
Jan 6 Sat 08:30 #24: Global MILLION$ New Year Bounty Bash [Stage 1] $50 $1,000,000
Jan 6 Sat 09:30 #25: Omaholic MILLION$ New Year Bounty Bash [Stage 1] $54 $250,000
Jan 6 Sat 10:30 #24: Global MILLION$ New Year Bounty Bash [Stage 1] $50 $1,000,000
Jan 6 Sat 12:30 #24: Global MILLION$ New Year Bounty Bash [Stage 1] $50 $1,000,000
Jan 6 Sat 12:30 #25: Omaholic MILLION$ New Year Bounty Bash [Stage 1] $54 $250,000
Jan 6 Sat 13:30 #31: Winter Giveaway Series Grand Finale [Day 1] $250 $2,024,000
Jan 6 Sat 14:00 $30 Daily Merrython $30 $15,000
Jan 6 Sat 14:30 #24: Global MILLION$ New Year Bounty Bash [Stage 1] $50 $1,000,000
Jan 6 Sat 15:30 $12.90 Bounty Hunters Holiday Special $12.90 $50,000
Jan 6 Sat 15:30 #25: Omaholic MILLION$ New Year Bounty Bash [Stage 1] $54 $250,000
Jan 6 Sat 16:30 #24: Global MILLION$ New Year Bounty Bash [Stage 1] $50 $1,000,000
Jan 6 Sat 17:00 $250 Daily Main Event [Winter Freezeout] $250 $25,000
Jan 6 Sat 18:00 $150 Rotating Main Event with Special Names $150 $100,000
Jan 6 Sat 18:00 $15 Rotating MIni Main Event with Special Names $15 $50,000
Jan 6 Sat 18:00 #23: $300 Omaholic Triple Chance [3-Stack] $300 $100,000
Jan 6 Sat 18:30 #24: Global MILLION$ New Year Bounty Bash [Stage 1] $50 $1,000,000
Jan 6 Sat 18:30 #25: Omaholic MILLION$ New Year Bounty Bash [Stage 1] $54 $250,000
Jan 6 Sat 19:30 $108 Bounty Hunters Brrrrr! [Winter Freezeout] $108 $20,000
Jan 6 Sat 19:30 #31: Winter Giveaway Series Grand Finale [Day 1] $250 $2,024,000
Jan 6 Sat 20:30 #24: Global MILLION$ New Year Bounty Bash [Stage 1] $50 $1,000,000
Jan 6 Sat 21:00 $215 Holiday Heater $215 $20,000
Jan 6 Sat 21:30 #25: Omaholic MILLION$ New Year Bounty Bash [Stage 1] $54 $250,000
Jan 6 Sat 22:00 $64.50 Snowy SUPER SIX Bounty Turbo $64.50 $20,000
Jan 6 Sat 22:30 #24: Global MILLION$ New Year Bounty Bash [Stage 1] $50 $1,000,000
Jan 6 Sat 23:00 $50 Holiday Saver [Winter Freezeout] $50 $10,000
Jan 7 Sun 00:00 $25 Winter Tick Tock BOOM $25 $10,000
Jan 7 Sun 00:30 #24: Global MILLION$ New Year Bounty Bash [Stage 1] $50 $1,000,000
Jan 7 Sun 00:30 #25: Omaholic MILLION$ New Year Bounty Bash [Stage 1] $54 $250,000
Jan 7 Sun 01:00 $108 Santa's Speed Racer $108 $10,000
Jan 7 Sun 02:30 #24: Global MILLION$ New Year Bounty Bash [Stage 1] $50 $1,000,000
Jan 7 Sun 03:30 #25: Omaholic MILLION$ New Year Bounty Bash [Stage 1] $54 $250,000
Jan 7 Sun 04:30 #24: Global MILLION$ New Year Bounty Bash [Stage 1] $50 $1,000,000
Jan 7 Sun 06:30 #24: Global MILLION$ New Year Bounty Bash [Stage 1] $50 $1,000,000
Jan 7 Sun 06:30 #25: Omaholic MILLION$ New Year Bounty Bash [Stage 1] $54 $250,000
Jan 7 Sun 08:30 #24: Global MILLION$ New Year Bounty Bash [Stage 1] $50 $1,000,000
Jan 7 Sun 09:30 #25: Omaholic MILLION$ New Year Bounty Bash [Stage 1] $54 $250,000
Jan 7 Sun 10:30 #24: Global MILLION$ New Year Bounty Bash [Stage 1] $50 $1,000,000
Jan 7 Sun 12:00 $125 Sunday Winter Kick-Off $125 $75,000
Jan 7 Sun 12:30 #24: Global MILLION$ New Year Bounty Bash [Stage 1] $50 $1,000,000
Jan 7 Sun 12:30 #25: Omaholic MILLION$ New Year Bounty Bash [Stage 1] $54 $250,000
Jan 7 Sun 13:00 $25 Sunday MERRY Monster Stack $25 $75,000
Jan 7 Sun 13:30 #31: Winter Giveaway Series Grand Finale [Day 1] $250 $2,024,000
Jan 7 Sun 14:00 $300 Sunday Merrython $300 $75,000
Jan 7 Sun 14:30 $85.50 Bounty Blast $85.50 $75,000
Jan 7 Sun 14:30 #24: Global MILLION$ New Year Bounty Bash [Stage 1] $50 $1,000,000
Jan 7 Sun 14:30 #25: Omaholic MILLION$ New Year Bounty Bash [Stage 1] $54 $250,000
Jan 7 Sun 15:00 $125 Grand Winter Prix $125 $150,000
Jan 7 Sun 15:30 $44 Bounty Frozen FORTY STACK $44 $200,000
Jan 7 Sun 16:00 $88 Sunday CRAZY EIGHTS $88 $88,000
Jan 7 Sun 16:30 $54 Bounty Hunters MAIN EVENT $54 $500,000
Jan 7 Sun 16:30 #24: Global MILLION$ New Year Bounty Bash [Stage 1] $50 $1,000,000
Jan 7 Sun 16:30 #25: Omaholic MILLION$ New Year Bounty Bash [Stage 1] $54 $250,000
Jan 7 Sun 17:30 $215 Bounty Winter BIG GAMES $215 $300,000
Jan 7 Sun 17:40 $54 Omaholic Bounty SNOW Showdown $54 $25,000
Jan 7 Sun 18:00 $36.50 Sunday SNOW GIANT $36.50 $150,000
Jan 7 Sun 18:00 #24: Global MILLION$ New Year Bounty Bash [Last Chance] $50 $1,000,000
Jan 7 Sun 18:00 #25: Omaholic MILLION$ New Year Bounty Bash [Last Chance] $54 $250,000
Jan 7 Sun 18:30 $320 GGMasters Bounty Winter FREEZEOUT $320 $350,000
Jan 7 Sun 18:40 #25: Omaholic MILLION$ New Year Bounty Bash [Last Minute] $54 $250,000
Jan 7 Sun 18:45 #24: Global MILLION$ New Year Bounty Bash [Last Minute] $50 $1,000,000
Jan 7 Sun 19:00 $125 Sunday HUNDRED Stack $125 $150,000
Jan 7 Sun 19:30 $215 Omholic Bounty MAIN EVENT $215 $50,000
Jan 7 Sun 19:30 #31: Winter Giveaway Series Grand Finale [Day 1] $250 $2,024,000
Jan 7 Sun 20:00 $77 LUCKY SEVENS Superstack Turbo $77 $100,000
Jan 7 Sun 20:30 #24: Global MILLION$ New Year Bounty Bash [Final Stage] $50 $1,000,000
Jan 7 Sun 20:30 #25: Omaholic MILLION$ New Year Bounty Bash [Final Stage] $54 $250,000
Jan 7 Sun 21:00 $250 Sunday Cooler [Bounty Turbo] $250 $125,000
Jan 7 Sun 22:00 $64.50 Snowy SUPER SIX Bounty Turbo $64.50 $60,000
Jan 7 Sun 23:00 $50 Sunday Saver [Winter Freezeout] $50 $50,000
Jan 8 Mon 00:00 $25 Winter Tick Tock BOOM $25 $100,000
Jan 8 Mon 01:00 $108 Santa's Speed Racer $108 $125,000
Jan 8 Mon 10:30 #31: Winter Giveaway Series Grand Finale [Day 1] $250 $2,024,000
Jan 8 Mon 13:30 #31: Winter Giveaway Series Grand Finale [Day 1] $250 $2,024,000
Jan 8 Mon 14:00 $30 Daily Merrython $30 $15,000
Jan 8 Mon 15:30 $12.90 Bounty Hunters Holiday Special $12.90 $50,000
Jan 8 Mon 16:30 #31: Winter Giveaway Series Grand Finale [Day 1] $250 $2,024,000
Jan 8 Mon 17:00 $250 Daily Main Event [Winter Freezeout] $250 $25,000
Jan 8 Mon 18:00 $150 Rotating Main Event with Special Names $150 $100,000
Jan 8 Mon 18:00 $15 Rotating MIni Main Event with Special Names $15 $50,000
Jan 8 Mon 18:00 #26: $88 CRAZY EIGHTS $88 $200,000
Jan 8 Mon 19:30 $108 Bounty Hunters Brrrrr! [Winter Freezeout] $108 $20,000
Jan 8 Mon 19:30 #31: Winter Giveaway Series Grand Finale [Day 1] $250 $2,024,000
Jan 8 Mon 21:00 $215 Holiday Heater $215 $20,000
Jan 8 Mon 22:00 $64.50 Snowy SUPER SIX Bounty Turbo $64.50 $20,000
Jan 8 Mon 22:30 #31: Winter Giveaway Series Grand Finale [Day 1] $250 $2,024,000
Jan 8 Mon 23:00 $50 Holiday Saver [Winter Freezeout] $50 $10,000
Jan 9 Tue 00:00 $25 Winter Tick Tock BOOM $25 $10,000
Jan 9 Tue 01:00 $108 Santa's Speed Racer $108 $10,000
Jan 9 Tue 10:30 #31: Winter Giveaway Series Grand Finale [Day 1] $250 $2,024,000
Jan 9 Tue 13:30 #31: Winter Giveaway Series Grand Finale [Day 1] $250 $2,024,000
Jan 9 Tue 14:00 $30 Daily Merrython $30 $15,000
Jan 9 Tue 15:30 $12.90 Bounty Hunters Holiday Special $12.90 $50,000
Jan 9 Tue 16:30 #31: Winter Giveaway Series Grand Finale [Day 1] $250 $2,024,000
Jan 9 Tue 17:00 $250 Daily Main Event [Winter Freezeout] $250 $25,000
Jan 9 Tue 18:00 $150 Rotating Main Event with Special Names $150 $100,000
Jan 9 Tue 18:00 $15 Rotating MIni Main Event with Special Names $15 $50,000
Jan 9 Tue 18:00 #27: $2,100 Bounty High Roller $2,100 $500,000
Jan 9 Tue 19:30 $108 Bounty Hunters Brrrrr! [Winter Freezeout] $108 $20,000
Jan 9 Tue 19:30 #31: Winter Giveaway Series Grand Finale [Day 1] $250 $2,024,000
Jan 9 Tue 21:00 $215 Holiday Heater $215 $20,000
Jan 9 Tue 22:00 $64.50 Snowy SUPER SIX Bounty Turbo $64.50 $20,000
Jan 9 Tue 22:30 #31: Winter Giveaway Series Grand Finale [Day 1] $250 $2,024,000
Jan 9 Tue 23:00 $50 Holiday Saver [Winter Freezeout] $50 $10,000
Jan 10 Wed 00:00 $25 Winter Tick Tock BOOM $25 $10,000
Jan 10 Wed 01:00 $108 Santa's Speed Racer $108 $10,000
Jan 10 Wed 10:30 #31: Winter Giveaway Series Grand Finale [Day 1] $250 $2,024,000
Jan 10 Wed 13:30 #31: Winter Giveaway Series Grand Finale [Day 1] $250 $2,024,000
Jan 10 Wed 14:00 $30 Daily Merrython $30 $15,000
Jan 10 Wed 15:30 $12.90 Bounty Hunters Holiday Special $12.90 $50,000
Jan 10 Wed 16:30 #31: Winter Giveaway Series Grand Finale [Day 1] $250 $2,024,000
Jan 10 Wed 17:00 $250 Daily Main Event [Winter Freezeout] $250 $25,000
Jan 10 Wed 18:00 $150 Rotating Main Event with Special Names $150 $100,000
Jan 10 Wed 18:00 $15 Rotating MIni Main Event with Special Names $15 $50,000
Jan 10 Wed 18:00 #28: $300 Deepstack [Slower Levels] $300 $200,000
Jan 10 Wed 19:30 $108 Bounty Hunters Brrrrr! [Winter Freezeout] $108 $20,000
Jan 10 Wed 19:30 #31: Winter Giveaway Series Grand Finale [Day 1] $250 $2,024,000
Jan 10 Wed 21:00 $215 Holiday Heater $215 $20,000
Jan 10 Wed 22:00 $64.50 Snowy SUPER SIX Bounty Turbo $64.50 $20,000
Jan 10 Wed 22:30 #31: Winter Giveaway Series Grand Finale [Day 1] $250 $2,024,000
Jan 10 Wed 23:00 $50 Holiday Saver [Winter Freezeout] $50 $10,000
Jan 11 Thu 00:00 $25 Winter Tick Tock BOOM $25 $10,000
Jan 11 Thu 01:00 $108 Santa's Speed Racer $108 $10,000
Jan 11 Thu 10:30 #31: Winter Giveaway Series Grand Finale [Day 1] $250 $2,024,000
Jan 11 Thu 13:30 #31: Winter Giveaway Series Grand Finale [Day 1] $250 $2,024,000
Jan 11 Thu 14:00 $30 Daily Merrython $30 $15,000
Jan 11 Thu 15:30 $12.90 Bounty Hunters Holiday Special $12.90 $50,000
Jan 11 Thu 16:30 #31: Winter Giveaway Series Grand Finale [Day 1] $250 $2,024,000
Jan 11 Thu 17:00 $250 Daily Main Event [Winter Freezeout] $250 $25,000
Jan 11 Thu 18:00 $150 Rotating Main Event with Special Names $150 $100,000
Jan 11 Thu 18:00 $15 Rotating MIni Main Event with Special Names $15 $50,000
Jan 11 Thu 18:00 #29: $54 Bankroll Builder Bounty $54 $250,000
Jan 11 Thu 19:30 $108 Bounty Hunters Brrrrr! [Winter Freezeout] $108 $20,000
Jan 11 Thu 19:30 #31: Winter Giveaway Series Grand Finale [Day 1] $250 $2,024,000
Jan 11 Thu 21:00 $215 Holiday Heater $215 $20,000
Jan 11 Thu 22:00 $64.50 Snowy SUPER SIX Bounty Turbo $64.50 $20,000
Jan 11 Thu 22:30 #31: Winter Giveaway Series Grand Finale [Day 1] $250 $2,024,000
Jan 11 Thu 23:00 $50 Holiday Saver [Winter Freezeout] $50 $10,000
Jan 12 Fri 00:00 $25 Winter Tick Tock BOOM $25 $10,000
Jan 12 Fri 01:00 $108 Santa's Speed Racer $108 $10,000
Jan 12 Fri 10:30 #31: Winter Giveaway Series Grand Finale [Day 1] $250 $2,024,000
Jan 12 Fri 13:30 #31: Winter Giveaway Series Grand Finale [Day 1] $250 $2,024,000
Jan 12 Fri 14:00 $30 Daily Merrython $30 $15,000
Jan 12 Fri 15:30 $12.90 Bounty Hunters Holiday Special $12.90 $50,000
Jan 12 Fri 16:30 #31: Winter Giveaway Series Grand Finale [Day 1] $250 $2,024,000
Jan 12 Fri 17:00 $250 Daily Main Event [Winter Freezeout] $250 $25,000
Jan 12 Fri 18:00 $150 Rotating Main Event with Special Names $150 $100,000
Jan 12 Fri 18:00 $15 Rotating MIni Main Event with Special Names $15 $50,000
Jan 12 Fri 18:00 #30: $100 Friday Freezeout Closer $100 $100,000
Jan 12 Fri 19:30 $108 Bounty Hunters Brrrrr! [Winter Freezeout] $108 $20,000
Jan 12 Fri 19:30 #31: Winter Giveaway Series Grand Finale [Day 1] $250 $2,024,000
Jan 12 Fri 21:00 $215 Holiday Heater $215 $20,000
Jan 12 Fri 22:00 $64.50 Snowy SUPER SIX Bounty Turbo $64.50 $20,000
Jan 12 Fri 22:30 #31: Winter Giveaway Series Grand Finale [Day 1] $250 $2,024,000
Jan 12 Fri 23:00 $50 Holiday Saver [Winter Freezeout] $50 $10,000
Jan 13 Sat 00:00 $25 Winter Tick Tock BOOM $25 $10,000
Jan 13 Sat 01:00 $108 Santa's Speed Racer $108 $10,000
Jan 13 Sat 10:30 #31: Winter Giveaway Series Grand Finale [Day 1] $250 $2,024,000
Jan 13 Sat 13:30 #31: Winter Giveaway Series Grand Finale [Day 1] $250 $2,024,000
Jan 13 Sat 14:00 $30 Daily Merrython $30 $15,000
Jan 13 Sat 15:30 $12.90 Bounty Hunters Holiday Special $12.90 $50,000
Jan 13 Sat 16:30 #31: Winter Giveaway Series Grand Finale [Day 1] $250 $2,024,000
Jan 13 Sat 17:00 $250 Daily Main Event [Winter Freezeout] $250 $25,000
Jan 13 Sat 18:00 $150 Rotating Main Event with Special Names $150 $100,000
Jan 13 Sat 18:00 $15 Rotating MIni Main Event with Special Names $15 $50,000
Jan 13 Sat 19:30 $108 Bounty Hunters Brrrrr! [Winter Freezeout] $108 $20,000
Jan 13 Sat 19:30 #31: Winter Giveaway Series Grand Finale [Day 1] $250 $2,024,000
Jan 13 Sat 21:00 $215 Holiday Heater $215 $20,000
Jan 13 Sat 22:00 $64.50 Snowy SUPER SIX Bounty Turbo $64.50 $20,000
Jan 13 Sat 22:30 #31: Winter Giveaway Series Grand Finale [Day 1] $250 $2,024,000
Jan 13 Sat 23:00 $50 Holiday Saver [Winter Freezeout] $50 $10,000
Jan 14 Sun 00:00 $25 Winter Tick Tock BOOM $25 $10,000
Jan 14 Sun 01:00 $108 Santa's Speed Racer $108 $10,000
Jan 14 Sun 10:30 #31: Winter Giveaway Series Grand Finale [Day 1] $250 $2,024,000
Jan 14 Sun 12:00 $125 Sunday Winter Kick-Off $125 $75,000
Jan 14 Sun 13:00 $25 Sunday MERRY Monster Stack $25 $75,000
Jan 14 Sun 13:30 #31: Winter Giveaway Series Grand Finale [Day 1] $250 $2,024,000
Jan 14 Sun 14:00 $300 Sunday Merrython $300 $75,000
Jan 14 Sun 14:30 $85.50 Bounty Blast $85.50 $75,000
Jan 14 Sun 15:00 $125 Grand Winter Prix $125 $150,000
Jan 14 Sun 15:30 $44 Bounty Frozen FORTY STACK $44 $200,000
Jan 14 Sun 16:00 $88 Sunday CRAZY EIGHTS $88 $88,000
Jan 14 Sun 16:30 $54 Bounty Hunters MAIN EVENT $54 $500,000
Jan 14 Sun 16:30 #31: Winter Giveaway Series Grand Finale [Day 1] $250 $2,024,000
Jan 14 Sun 17:30 $215 Bounty Winter BIG GAMES $215 $300,000
Jan 14 Sun 17:40 $54 Omaholic Bounty SNOW Showdown $54 $25,000
Jan 14 Sun 18:00 $36.50 Sunday SNOW GIANT $36.50 $150,000
Jan 14 Sun 18:30 $320 GGMasters Bounty Winter FREEZEOUT $320 $350,000
Jan 14 Sun 19:00 $125 Sunday HUNDRED Stack $125 $150,000
Jan 14 Sun 19:30 $215 Omholic Bounty MAIN EVENT $215 $50,000
Jan 14 Sun 19:30 #31: Winter Giveaway Series Grand Finale [Day 1] $250 $2,024,000
Jan 14 Sun 20:00 $77 LUCKY SEVENS Superstack Turbo $77 $100,000
Jan 14 Sun 21:00 $250 Sunday Cooler [Bounty Turbo] $250 $125,000
Jan 14 Sun 22:00 $64.50 Snowy SUPER SIX Bounty Turbo $64.50 $60,000
Jan 14 Sun 22:30 #31: Winter Giveaway Series Grand Finale [Day 1] $250 $2,024,000
Jan 14 Sun 23:00 $50 Sunday Saver [Winter Freezeout] $50 $50,000
Jan 15 Mon 00:00 $25 Winter Tick Tock BOOM $25 $100,000
Jan 15 Mon 01:00 $108 Santa's Speed Racer $108 $125,000
Jan 15 Mon 01:30 #31: Winter Giveaway Series Grand Finale [Day 1] $250 $2,024,000
Jan 15 Mon 04:30 #31: Winter Giveaway Series Grand Finale [Day 1] $250 $2,024,000
Jan 15 Mon 07:30 #31: Winter Giveaway Series Grand Finale [Day 1] $250 $2,024,000
Jan 15 Mon 10:30 #31: Winter Giveaway Series Grand Finale [Day 1] $250 $2,024,000
Jan 15 Mon 13:30 #31: Winter Giveaway Series Grand Finale [Day 1] $250 $2,024,000
Jan 15 Mon 14:00 $30 Daily Merrython $30 $15,000
Jan 15 Mon 15:30 $12.90 Bounty Hunters Holiday Special $12.90 $50,000
Jan 15 Mon 15:30 #31: Winter Giveaway Series Grand Finale [Last Chance] $250 $2,024,000
Jan 15 Mon 17:00 $250 Daily Main Event [Winter Freezeout] $250 $25,000
Jan 15 Mon 18:00 $150 Rotating Main Event with Special Names $150 $100,000
Jan 15 Mon 18:00 $15 Rotating MIni Main Event with Special Names $15 $50,000
Jan 15 Mon 18:00 #31: Winter Giveaway Series Grand Finale [Final Day] $250 $2,024,000
Jan 15 Mon 19:30 $108 Bounty Hunters Brrrrr! [Winter Freezeout] $108 $20,000
Jan 15 Mon 21:00 $215 Holiday Heater $215 $20,000
Jan 15 Mon 22:00 $64.50 Snowy SUPER SIX Bounty Turbo $64.50 $20,000
Jan 15 Mon 23:00 $50 Holiday Saver [Winter Freezeout] $50 $10,000
Jan 16 Tue 00:00 $25 Winter Tick Tock BOOM $25 $10,000
Jan 16 Tue 01:00 $108 Santa's Speed Racer $108 $10,000
注意:所有冬季贈品系列錦標賽將有 50% 的錦標賽費用用於VIP回饋 。
giveaway special

2,300 萬美元冬季贈品特惠

查看我們的冬季贈品特惠。價值 2300 萬美元的令人興奮的年終贈品和獨家促銷活動,您確定要跳過這個嗎?

1m flipout 15m giftbox january 2m

常見問題(FAQ)

如果您需要更多幫助,請隨時聯繫我們友好的客服人員,他們隨時準備全天候為您提供幫助。

我可以獲得多少次參加新年快樂免費錦標賽第二天的資格?

一旦您獲得了第二天的資格,您將無法再次註冊。

2023 年的5,000 萬美元保底獎金冬季贈品系列和 2,300 萬美元冬季贈品有什麼不同?

5000 萬美元的保底獎金冬季贈品系列包括獎金池豐厚的錦標賽,而 2300 萬美元的冬季贈品,包括您可以獲得免費每日禮物、完成任務、享受附加內容以及參加免費錦標賽和 flipouts 比賽。

查看2300 萬美元冬季贈品頁面以了解更多資訊。**

我可以參加多少次新年快樂免費錦標賽活動?

您每天只能參加一場新年快樂免費錦標賽活動。

條款及規則

  1. 玩家必須年滿18歲,才能參與此促銷活動。
  2. 除非另有說明,所有貨幣均以美元報價。
  3. 請注意,錦標賽獎池保證可能會發生變化,並且本網站上列出的某些金額可能不是最新的。請檢查Natural8應用程序的錦標賽大廳中列出的保證金,以獲取最新的獎池信息。比賽獎品按照Natural8標準支付程序頒發。
  4. 如果冬季贈品系列活動未達到保底,則 10% 的附加獎勵將添加到實際獎勵中。例如:如果 $100K 保底賽事的獎金池為 $95K,則會增加 $10K,使獎金池達到 $105K。
  5. Natural8 保留調查任何涉嫌詐騙活動的玩家,並採取任何必要的行動的權利。如果發現多重帳戶、違規的方式追求獎金或不正當行為,Natural8 保留在未事先通知的情況下沒收已支付的任何獎金以及任何剩餘現金餘額的權利。
  6. Natural8 保留隨時取消或修改本次錦標賽及其促銷活動的權利,恕不另行通知,並可自行決定。
  7. 此促銷活動受 Natural8 網站的條款和條件約束。
  8. Natural8提倡更安全的賭博。如果您認為自己可能存在賭博問題,請在www.begambleaware.org上尋求進一步的建議或諮詢。

您也許會喜歡